Time,TemperatureF,DewpointF,PressureIn,WindDirection,WindDirectionDegrees,WindSpeedMPH,WindSpeedGustMPH,Humidity,HourlyPrecipIn,Conditions,Clouds,dailyrainin,SoftwareType,DateUTC
2013-03-21 00:00:00,38.5,27.4,29.86,North,0,1.8,5.4,64,0.00,,,0.00,WUHU216HW,2013-03-21 04:00:00,
2013-03-21 00:01:00,38.5,26.9,29.86,NW,326,1.7,5.4,63,0.00,,,0.00,WUHU216HW,2013-03-21 04:01:00,
2013-03-21 00:02:00,38.3,26.8,29.86,NNW,337,1.2,5.4,63,0.00,,,0.00,WUHU216HW,2013-03-21 04:02:00,
2013-03-21 00:06:00,38.0,26.5,29.86,NNW,343,1.4,3.6,63,0.00,,,0.00,WUHU216HW,2013-03-21 04:06:00,
2013-03-21 00:07:00,38.0,26.5,29.86,NNW,339,1.3,3.6,63,0.00,,,0.00,WUHU216HW,2013-03-21 04:07:00,
2013-03-21 00:11:00,37.8,26.6,29.86,NNW,338,3.4,3.4,64,0.00,,,0.00,WUHU216HW,2013-03-21 04:11:00,
2013-03-21 00:12:00,37.8,26.6,29.86,WNW,293,4.0,4.0,64,0.00,,,0.00,WUHU216HW,2013-03-21 04:12:00,
2013-03-21 00:13:00,37.8,27.5,29.86,NNW,331,2.7,4.0,66,0.00,,,0.00,WUHU216HW,2013-03-21 04:13:00,
2013-03-21 00:17:00,37.8,26.6,29.86,NW,316,0.5,4.0,64,0.00,,,0.00,WUHU216HW,2013-03-21 04:17:00,
2013-03-21 00:18:00,37.8,26.6,29.85,NW,316,0.5,4.0,64,0.00,,,0.00,WUHU216HW,2013-03-21 04:18:00,
2013-03-21 00:22:00,37.6,26.6,29.85,NNW,344,0.7,2.0,64,0.00,,,0.00,WUHU216HW,2013-03-21 04:22:00,
2013-03-21 00:23:00,37.6,26.1,29.85,NW,315,0.7,2.0,63,0.00,,,0.00,WUHU216HW,2013-03-21 04:23:00,
2013-03-21 00:28:00,37.3,26.6,29.86,NNW,332,1.4,2.0,65,0.00,,,0.00,WUHU216HW,2013-03-21 04:28:00,
2013-03-21 00:29:00,37.3,26.6,29.86,NNW,332,1.3,2.0,65,0.00,,,0.00,WUHU216HW,2013-03-21 04:29:00,
2013-03-21 00:34:00,37.1,26.0,29.86,North,0,0.7,2.0,64,0.00,,,0.00,WUHU216HW,2013-03-21 04:34:00,
2013-03-21 00:35:00,37.3,26.6,29.86,North,351,0.6,2.0,65,0.00,,,0.00,WUHU216HW,2013-03-21 04:35:00,
2013-03-21 00:39:00,37.3,26.6,29.86,NNE,23,2.9,2.9,65,0.00,,,0.00,WUHU216HW,2013-03-21 04:39:00,
2013-03-21 00:40:00,37.4,27.1,29.86,NNE,23,3.1,3.1,66,0.00,,,0.00,WUHU216HW,2013-03-21 04:40:00,
2013-03-21 00:41:00,37.4,26.7,29.85,NNE,22,2.3,3.1,65,0.00,,,0.00,WUHU216HW,2013-03-21 04:41:00,
2013-03-21 00:44:00,37.6,27.3,29.86,NNE,17,2.7,3.4,66,0.00,,,0.00,WUHU216HW,2013-03-21 04:44:00,
2013-03-21 00:45:00,37.6,27.3,29.85,NNE,14,1.9,3.4,66,0.00,,,0.00,WUHU216HW,2013-03-21 04:45:00,
2013-03-21 00:46:00,37.6,27.3,29.85,North,0,1.1,3.4,66,0.00,,,0.00,WUHU216HW,2013-03-21 04:46:00,
2013-03-21 00:50:00,37.6,27.6,29.85,North,6,1.3,3.4,67,0.00,,,0.00,WUHU216HW,2013-03-21 04:50:00,
2013-03-21 00:51:00,37.6,27.3,29.86,NNE,23,1.8,3.4,66,0.00,,,0.00,WUHU216HW,2013-03-21 04:51:00,
2013-03-21 00:55:00,37.4,27.5,29.86,NE,45,1.8,3.6,67,0.00,,,0.00,WUHU216HW,2013-03-21 04:55:00,
2013-03-21 00:56:00,37.6,27.6,29.86,NNE,23,4.3,4.3,67,0.00,,,0.00,WUHU216HW,2013-03-21 04:56:00,
2013-03-21 01:00:00,37.4,27.5,29.86,North,1,1.5,4.5,67,0.00,,,0.00,WUHU216HW,2013-03-21 05:00:00,
2013-03-21 01:01:00,37.4,27.5,29.86,North,0,0.9,4.5,67,0.00,,,0.00,WUHU216HW,2013-03-21 05:01:00,
2013-03-21 01:03:00,37.4,27.1,29.85,NNE,23,4.0,4.5,66,0.00,,,0.00,WUHU216HW,2013-03-21 05:03:00,
2013-03-21 01:06:00,37.1,27.2,29.86,NNW,329,1.1,4.0,67,0.00,,,0.00,WUHU216HW,2013-03-21 05:06:00,
2013-03-21 01:07:00,37.1,27.2,29.86,NE,45,1.8,4.0,67,0.00,,,0.00,WUHU216HW,2013-03-21 05:07:00,
2013-03-21 01:08:00,37.1,27.2,29.86,NNE,23,5.6,5.6,67,0.00,,,0.00,WUHU216HW,2013-03-21 05:08:00,
2013-03-21 01:12:00,37.1,27.2,29.85,North,0,2.2,6.3,67,0.00,,,0.00,WUHU216HW,2013-03-21 05:12:00,
2013-03-21 01:13:00,37.1,27.2,29.85,NNE,23,4.7,6.3,67,0.00,,,0.00,WUHU216HW,2013-03-21 05:13:00,
2013-03-21 01:17:00,37.3,27.3,29.85,NNE,23,2.5,6.3,67,0.00,,,0.00,WUHU216HW,2013-03-21 05:17:00,
2013-03-21 01:18:00,37.3,27.3,29.85,NW,315,2.0,6.3,67,0.00,,,0.00,WUHU216HW,2013-03-21 05:18:00,
2013-03-21 01:19:00,37.3,27.3,29.85,North,359,2.2,5.4,67,0.00,,,0.00,WUHU216HW,2013-03-21 05:19:00,
2013-03-21 01:23:00,37.3,26.9,29.85,North,4,1.0,5.4,66,0.00,,,0.00,WUHU216HW,2013-03-21 05:23:00,
2013-03-21 01:25:00,37.4,27.5,29.85,NNE,23,2.0,4.5,67,0.00,,,0.00,WUHU216HW,2013-03-21 05:25:00,
2013-03-21 01:28:00,37.4,27.5,29.85,NNW,342,1.9,3.4,67,0.00,,,0.00,WUHU216HW,2013-03-21 05:28:00,
2013-03-21 01:29:00,37.4,27.5,29.85,NNW,341,1.9,3.4,67,0.00,,,0.00,WUHU216HW,2013-03-21 05:29:00,
2013-03-21 01:30:00,37.4,27.5,29.85,North,0,1.8,3.4,67,0.00,,,0.00,WUHU216HW,2013-03-21 05:30:00,
2013-03-21 01:33:00,37.4,27.5,29.85,NNW,341,1.7,3.4,67,0.00,,,0.00,WUHU216HW,2013-03-21 05:33:00,
2013-03-21 01:34:00,37.4,27.5,29.85,North,351,2.0,4.0,67,0.00,,,0.00,WUHU216HW,2013-03-21 05:34:00,
2013-03-21 01:36:00,37.4,27.5,29.85,NNW,338,2.7,4.0,67,0.00,,,0.00,WUHU216HW,2013-03-21 05:36:00,
2013-03-21 01:38:00,37.4,27.5,29.85,North,0,3.6,4.0,67,0.00,,,0.00,WUHU216HW,2013-03-21 05:38:00,
2013-03-21 01:39:00,37.4,27.5,29.85,North,0,3.4,4.0,67,0.00,,,0.00,WUHU216HW,2013-03-21 05:39:00,
2013-03-21 01:40:00,37.4,27.5,29.85,NNW,342,3.1,4.0,67,0.00,,,0.00,WUHU216HW,2013-03-21 05:40:00,
2013-03-21 01:41:00,37.4,27.5,29.85,NNW,335,2.5,4.0,67,0.00,,,0.00,WUHU216HW,2013-03-21 05:41:00,
2013-03-21 01:45:00,37.4,27.5,29.85,North,351,3.4,4.9,67,0.00,,,0.00,WUHU216HW,2013-03-21 05:45:00,
2013-03-21 01:46:00,37.3,26.9,29.85,East,90,2.0,4.9,66,0.00,,,0.00,WUHU216HW,2013-03-21 05:46:00,
2013-03-21 01:47:00,37.3,27.3,29.85,North,351,2.5,4.9,67,0.00,,,0.00,WUHU216HW,2013-03-21 05:47:00,
2013-03-21 01:51:00,37.1,26.7,29.85,NNW,327,4.0,6.7,66,0.00,,,0.00,WUHU216HW,2013-03-21 05:51:00,
2013-03-21 01:53:00,37.1,26.7,29.85,NE,45,4.0,6.7,66,0.00,,,0.00,WUHU216HW,2013-03-21 05:53:00,
2013-03-21 01:56:00,37.1,26.4,29.85,NW,324,2.2,6.7,65,0.00,,,0.00,WUHU216HW,2013-03-21 05:56:00,
2013-03-21 01:57:00,36.9,26.6,29.85,NW,315,6.0,6.7,66,0.00,,,0.00,WUHU216HW,2013-03-21 05:57:00,
2013-03-21 01:59:00,36.9,26.6,29.85,NNW,338,6.7,6.7,66,0.00,,,0.00,WUHU216HW,2013-03-21 05:59:00,
2013-03-21 02:02:00,36.7,26.0,29.85,NW,322,3.0,6.7,65,0.00,,,0.00,WUHU216HW,2013-03-21 06:02:00,
2013-03-21 02:03:00,36.7,26.0,29.85,NNW,336,2.8,6.7,65,0.00,,,0.00,WUHU216HW,2013-03-21 06:03:00,
2013-03-21 02:04:00,36.7,26.0,29.84,NW,315,2.0,6.7,65,0.00,,,0.00,WUHU216HW,2013-03-21 06:04:00,
2013-03-21 02:05:00,36.7,26.0,29.85,NW,315,3.8,6.7,65,0.00,,,0.00,WUHU216HW,2013-03-21 06:05:00,
2013-03-21 02:07:00,36.5,25.9,29.85,North,0,3.6,6.7,65,0.00,,,0.00,WUHU216HW,2013-03-21 06:07:00,
2013-03-21 02:09:00,36.4,26.1,29.85,NNW,338,5.4,6.3,66,0.00,,,0.00,WUHU216HW,2013-03-21 06:09:00,
2013-03-21 02:10:00,36.5,26.3,29.85,NW,304,5.2,6.3,66,0.00,,,0.00,WUHU216HW,2013-03-21 06:10:00,
2013-03-21 02:13:00,36.4,25.8,29.85,NNW,334,2.7,6.3,65,0.00,,,0.00,WUHU216HW,2013-03-21 06:13:00,
2013-03-21 02:15:00,36.4,26.1,29.85,NNW,342,2.0,6.3,66,0.00,,,0.00,WUHU216HW,2013-03-21 06:15:00,
2013-03-21 02:16:00,36.4,26.1,29.84,NW,315,2.5,6.3,66,0.00,,,0.00,WUHU216HW,2013-03-21 06:16:00,
2013-03-21 02:18:00,36.2,25.9,29.85,NNW,336,1.6,6.3,66,0.00,,,0.00,WUHU216HW,2013-03-21 06:18:00,
2013-03-21 02:19:00,36.0,25.8,29.85,NNW,345,1.1,6.3,66,0.00,,,0.00,WUHU216HW,2013-03-21 06:19:00,
2013-03-21 02:20:00,36.0,25.8,29.85,NW,315,1.1,3.8,66,0.00,,,0.00,WUHU216HW,2013-03-21 06:20:00,
2013-03-21 02:22:00,35.8,25.9,29.85,NNW,338,1.8,3.4,67,0.00,,,0.00,WUHU216HW,2013-03-21 06:22:00,
2013-03-21 02:24:00,35.6,25.7,29.85,North,358,2.2,3.4,67,0.00,,,0.00,WUHU216HW,2013-03-21 06:24:00,
2013-03-21 02:25:00,35.6,25.7,29.84,North,3,2.2,3.6,67,0.00,,,0.00,WUHU216HW,2013-03-21 06:25:00,
2013-03-21 02:27:00,35.6,25.7,29.84,North,0,2.5,3.6,67,0.00,,,0.00,WUHU216HW,2013-03-21 06:27:00,
2013-03-21 02:29:00,35.6,26.5,29.84,NNW,338,4.0,4.0,69,0.00,,,0.00,WUHU216HW,2013-03-21 06:29:00,
2013-03-21 02:30:00,35.5,26.3,29.84,North,356,1.4,4.0,69,0.00,,,0.00,WUHU216HW,2013-03-21 06:30:00,
2013-03-21 02:32:00,35.5,26.3,29.84,NNE,23,1.1,4.0,69,0.00,,,0.00,WUHU216HW,2013-03-21 06:32:00,
2013-03-21 02:34:00,35.3,26.5,29.84,NNE,23,4.0,5.4,70,0.00,,,0.00,WUHU216HW,2013-03-21 06:34:00,
2013-03-21 02:37:00,35.1,26.7,29.84,North,9,2.4,5.4,71,0.00,,,0.00,WUHU216HW,2013-03-21 06:37:00,
2013-03-21 02:38:00,35.3,26.8,29.84,NNE,13,2.3,5.4,71,0.00,,,0.00,WUHU216HW,2013-03-21 06:38:00,
2013-03-21 02:39:00,35.1,26.3,29.84,NNE,22,1.4,5.4,70,0.00,,,0.00,WUHU216HW,2013-03-21 06:39:00,
2013-03-21 02:40:00,35.1,26.7,29.84,NNE,17,1.9,5.4,71,0.00,,,0.00,WUHU216HW,2013-03-21 06:40:00,
2013-03-21 02:42:00,34.9,26.5,29.84,NNE,20,1.4,5.4,71,0.00,,,0.00,WUHU216HW,2013-03-21 06:42:00,
2013-03-21 02:43:00,34.9,26.7,29.84,North,8,1.3,5.4,72,0.00,,,0.00,WUHU216HW,2013-03-21 06:43:00,
2013-03-21 02:45:00,34.9,26.5,29.84,North,0,1.8,4.7,71,0.00,,,0.00,WUHU216HW,2013-03-21 06:45:00,
2013-03-21 02:46:00,34.9,26.7,29.84,North,349,1.5,4.7,72,0.00,,,0.00,WUHU216HW,2013-03-21 06:46:00,
2013-03-21 02:48:00,34.7,26.9,29.84,North,0,3.0,4.5,73,0.00,,,0.00,WUHU216HW,2013-03-21 06:48:00,
2013-03-21 02:50:00,34.7,26.6,29.84,North,0,4.0,4.5,72,0.00,,,0.00,WUHU216HW,2013-03-21 06:50:00,
2013-03-21 02:52:00,34.7,26.6,29.84,North,9,3.6,5.4,72,0.00,,,0.00,WUHU216HW,2013-03-21 06:52:00,
2013-03-21 02:53:00,34.7,26.6,29.84,North,0,1.8,5.4,72,0.00,,,0.00,WUHU216HW,2013-03-21 06:53:00,
2013-03-21 02:54:00,34.7,26.6,29.84,North,357,1.5,5.4,72,0.00,,,0.00,WUHU216HW,2013-03-21 06:54:00,
2013-03-21 02:55:00,34.6,26.1,29.84,North,8,1.3,5.4,71,0.00,,,0.00,WUHU216HW,2013-03-21 06:55:00,
2013-03-21 02:57:00,34.6,26.1,29.84,North,3,1.8,5.4,71,0.00,,,0.00,WUHU216HW,2013-03-21 06:57:00,
2013-03-21 02:58:00,34.4,25.9,29.84,North,0,3.4,5.4,71,0.00,,,0.00,WUHU216HW,2013-03-21 06:58:00,
2013-03-21 03:00:00,34.4,25.9,29.84,NNW,342,1.9,5.4,71,0.00,,,0.00,WUHU216HW,2013-03-21 07:00:00,
2013-03-21 03:01:00,34.4,25.9,29.84,NW,315,1.8,4.0,71,0.00,,,0.00,WUHU216HW,2013-03-21 07:01:00,
2013-03-21 03:03:00,34.2,25.4,29.84,NNW,328,2.5,3.4,70,0.00,,,0.00,WUHU216HW,2013-03-21 07:03:00,
2013-03-21 03:04:00,34.2,25.4,29.84,North,352,1.8,3.4,70,0.00,,,0.00,WUHU216HW,2013-03-21 07:04:00,
2013-03-21 03:05:00,34.2,25.4,29.84,North,10,1.9,3.4,70,0.00,,,0.00,WUHU216HW,2013-03-21 07:05:00,
2013-03-21 03:06:00,34.2,25.4,29.84,North,0,1.6,3.4,70,0.00,,,0.00,WUHU216HW,2013-03-21 07:06:00,
2013-03-21 03:08:00,34.2,25.0,29.84,NNE,14,1.8,3.4,69,0.00,,,0.00,WUHU216HW,2013-03-21 07:08:00,
2013-03-21 03:09:00,34.0,25.2,29.84,NNE,12,1.7,3.4,70,0.00,,,0.00,WUHU216HW,2013-03-21 07:09:00,
2013-03-21 03:12:00,34.0,25.2,29.84,NNE,23,8.3,8.3,70,0.00,,,0.00,WUHU216HW,2013-03-21 07:12:00,
2013-03-21 03:13:00,33.8,25.0,29.84,North,0,6.3,11.9,70,0.00,,,0.00,WUHU216HW,2013-03-21 07:13:00,
2013-03-21 03:14:00,33.8,25.0,29.84,NNE,20,6.3,11.9,70,0.00,,,0.00,WUHU216HW,2013-03-21 07:14:00,
2013-03-21 03:17:00,33.8,24.7,29.84,North,0,3.1,11.9,69,0.00,,,0.00,WUHU216HW,2013-03-21 07:17:00,
2013-03-21 03:18:00,33.8,25.0,29.84,North,1,2.7,11.9,70,0.00,,,0.00,WUHU216HW,2013-03-21 07:18:00,
2013-03-21 03:20:00,33.7,24.5,29.84,North,0,3.1,11.9,69,0.00,,,0.00,WUHU216HW,2013-03-21 07:20:00,
2013-03-21 03:22:00,33.7,24.5,29.84,NNE,23,6.5,11.9,69,0.00,,,0.00,WUHU216HW,2013-03-21 07:22:00,
2013-03-21 03:24:00,33.5,23.9,29.84,NNE,18,7.7,10.3,68,0.00,,,0.00,WUHU216HW,2013-03-21 07:24:00,
2013-03-21 03:25:00,33.5,23.9,29.84,North,358,3.9,10.3,68,0.00,,,0.00,WUHU216HW,2013-03-21 07:25:00,
2013-03-21 03:27:00,33.5,23.6,29.84,North,350,3.5,10.3,67,0.00,,,0.00,WUHU216HW,2013-03-21 07:27:00,
2013-03-21 03:28:00,33.5,23.6,29.84,North,352,3.2,10.3,67,0.00,,,0.00,WUHU216HW,2013-03-21 07:28:00,
2013-03-21 03:29:00,33.5,23.6,29.84,North,0,7.2,10.3,67,0.00,,,0.00,WUHU216HW,2013-03-21 07:29:00,
2013-03-21 03:32:00,33.3,22.8,29.85,North,357,5.2,10.3,65,0.00,,,0.00,WUHU216HW,2013-03-21 07:32:00,
2013-03-21 03:33:00,33.3,22.8,29.85,NNE,23,4.5,10.3,65,0.00,,,0.00,WUHU216HW,2013-03-21 07:33:00,
2013-03-21 03:34:00,33.3,22.4,29.85,NNW,338,4.7,7.2,64,0.00,,,0.00,WUHU216HW,2013-03-21 07:34:00,
2013-03-21 03:37:00,33.1,22.2,29.85,NNW,338,4.9,7.2,64,0.00,,,0.00,WUHU216HW,2013-03-21 07:37:00,
2013-03-21 03:38:00,33.1,22.2,29.85,NNW,338,4.3,7.2,64,0.00,,,0.00,WUHU216HW,2013-03-21 07:38:00,
2013-03-21 03:39:00,33.1,22.2,29.85,NNW,334,4.3,6.9,64,0.00,,,0.00,WUHU216HW,2013-03-21 07:39:00,
2013-03-21 03:40:00,33.1,21.9,29.85,NNW,339,4.4,6.9,63,0.00,,,0.00,WUHU216HW,2013-03-21 07:40:00,
2013-03-21 03:43:00,32.9,21.7,29.85,NNW,339,3.1,6.7,63,0.00,,,0.00,WUHU216HW,2013-03-21 07:43:00,
2013-03-21 03:44:00,32.9,21.3,29.85,NNW,338,5.1,6.7,62,0.00,,,0.00,WUHU216HW,2013-03-21 07:44:00,
2013-03-21 03:47:00,32.8,21.2,29.85,NNW,347,3.4,6.7,62,0.00,,,0.00,WUHU216HW,2013-03-21 07:47:00,
2013-03-21 03:48:00,32.8,21.2,29.85,North,1,3.1,6.7,62,0.00,,,0.00,WUHU216HW,2013-03-21 07:48:00,
2013-03-21 03:49:00,32.8,21.2,29.85,North,0,3.6,5.8,62,0.00,,,0.00,WUHU216HW,2013-03-21 07:49:00,
2013-03-21 03:50:00,32.6,21.0,29.85,North,356,2.8,5.4,62,0.00,,,0.00,WUHU216HW,2013-03-21 07:50:00,
2013-03-21 03:53:00,32.4,21.3,29.85,NE,45,1.6,5.4,63,0.00,,,0.00,WUHU216HW,2013-03-21 07:53:00,
2013-03-21 03:56:00,32.2,21.1,29.86,North,0,2.0,5.4,63,0.00,,,0.00,WUHU216HW,2013-03-21 07:56:00,
2013-03-21 03:58:00,32.2,21.1,29.85,North,349,1.3,3.6,63,0.00,,,0.00,WUHU216HW,2013-03-21 07:58:00,
2013-03-21 03:59:00,32.0,20.9,29.85,NNW,343,1.2,3.6,63,0.00,,,0.00,WUHU216HW,2013-03-21 07:59:00,
2013-03-21 04:02:00,32.0,21.2,29.85,NNW,338,0.9,2.5,64,0.00,,,0.00,WUHU216HW,2013-03-21 08:02:00,
2013-03-21 04:03:00,31.9,20.7,29.86,NNW,335,0.8,2.5,63,0.00,,,0.00,WUHU216HW,2013-03-21 08:03:00,
2013-03-21 04:05:00,31.7,20.9,29.86,NNW,333,0.6,2.0,64,0.00,,,0.00,WUHU216HW,2013-03-21 08:05:00,
2013-03-21 04:07:00,31.5,20.7,29.85,NNW,338,1.8,1.8,64,0.00,,,0.00,WUHU216HW,2013-03-21 08:07:00,
2013-03-21 04:08:00,31.5,20.7,29.85,NNW,332,1.6,1.8,64,0.00,,,0.00,WUHU216HW,2013-03-21 08:08:00,
2013-03-21 04:10:00,31.3,20.5,29.85,NNW,341,2.8,4.0,64,0.00,,,0.00,WUHU216HW,2013-03-21 08:10:00,
2013-03-21 04:13:00,31.3,20.2,29.85,North,0,3.0,4.3,63,0.00,,,0.00,WUHU216HW,2013-03-21 08:13:00,
2013-03-21 04:16:00,31.3,19.8,29.85,North,0,4.3,4.3,62,0.00,,,0.00,WUHU216HW,2013-03-21 08:16:00,
2013-03-21 04:18:00,31.3,19.4,29.85,NNW,346,3.7,6.0,61,0.00,,,0.00,WUHU216HW,2013-03-21 08:18:00,
2013-03-21 04:19:00,31.3,19.4,29.85,North,350,3.4,6.0,61,0.00,,,0.00,WUHU216HW,2013-03-21 08:19:00,
2013-03-21 04:23:00,31.3,19.4,29.85,North,349,2.8,6.0,61,0.00,,,0.00,WUHU216HW,2013-03-21 08:23:00,
2013-03-21 04:24:00,31.3,19.4,29.85,North,351,2.7,6.0,61,0.00,,,0.00,WUHU216HW,2013-03-21 08:24:00,
2013-03-21 04:25:00,31.1,19.3,29.85,North,0,2.0,6.0,61,0.00,,,0.00,WUHU216HW,2013-03-21 08:25:00,
2013-03-21 04:29:00,31.0,19.1,29.85,NNW,347,3.1,5.1,61,0.00,,,0.00,WUHU216HW,2013-03-21 08:29:00,
2013-03-21 04:30:00,31.0,19.1,29.85,NNW,343,2.7,5.1,61,0.00,,,0.00,WUHU216HW,2013-03-21 08:30:00,
2013-03-21 04:34:00,30.8,18.9,29.85,NNW,338,3.4,5.1,61,0.00,,,0.00,WUHU216HW,2013-03-21 08:34:00,
2013-03-21 04:35:00,30.8,18.5,29.85,NNW,338,4.0,5.1,60,0.00,,,0.00,WUHU216HW,2013-03-21 08:35:00,
2013-03-21 04:40:00,30.6,18.4,29.85,NW,315,3.6,6.9,60,0.00,,,0.00,WUHU216HW,2013-03-21 08:40:00,
2013-03-21 04:41:00,30.6,18.4,29.85,NW,320,3.7,6.9,60,0.00,,,0.00,WUHU216HW,2013-03-21 08:41:00,
2013-03-21 04:42:00,30.6,18.4,29.85,NNW,330,3.1,6.9,60,0.00,,,0.00,WUHU216HW,2013-03-21 08:42:00,
2013-03-21 04:45:00,30.4,18.2,29.85,NNW,337,3.1,6.9,60,0.00,,,0.00,WUHU216HW,2013-03-21 08:45:00,
2013-03-21 04:47:00,30.4,17.7,29.85,NNW,338,7.6,7.6,59,0.00,,,0.00,WUHU216HW,2013-03-21 08:47:00,
2013-03-21 04:50:00,30.2,17.2,29.85,NNW,338,6.3,7.6,58,0.00,,,0.00,WUHU216HW,2013-03-21 08:50:00,
2013-03-21 04:52:00,30.2,16.7,29.85,NW,315,7.8,8.5,57,0.00,,,0.00,WUHU216HW,2013-03-21 08:52:00,
2013-03-21 04:53:00,30.2,16.7,29.85,NW,315,7.6,8.5,57,0.00,,,0.00,WUHU216HW,2013-03-21 08:53:00,
2013-03-21 04:56:00,30.2,17.2,29.85,NNW,346,2.7,8.5,58,0.00,,,0.00,WUHU216HW,2013-03-21 08:56:00,
2013-03-21 04:57:00,30.1,17.0,29.85,NNW,338,4.9,8.5,58,0.00,,,0.00,WUHU216HW,2013-03-21 08:57:00,
2013-03-21 04:58:00,30.1,16.6,29.85,NW,325,4.1,8.5,57,0.00,,,0.00,WUHU216HW,2013-03-21 08:58:00,
2013-03-21 05:01:00,29.9,16.8,29.84,NNE,13,3.0,7.8,58,0.00,,,0.00,WUHU216HW,2013-03-21 09:01:00,
2013-03-21 05:02:00,29.9,16.8,29.85,NW,315,3.6,7.6,58,0.00,,,0.00,WUHU216HW,2013-03-21 09:02:00,
2013-03-21 05:04:00,29.9,16.8,29.85,NNW,327,2.6,6.0,58,0.00,,,0.00,WUHU216HW,2013-03-21 09:04:00,
2013-03-21 05:05:00,29.9,16.8,29.85,NW,325,2.1,6.0,58,0.00,,,0.00,WUHU216HW,2013-03-21 09:05:00,
2013-03-21 05:08:00,29.7,16.7,29.85,NNW,334,1.8,6.0,58,0.00,,,0.00,WUHU216HW,2013-03-21 09:08:00,
2013-03-21 05:10:00,29.7,16.7,29.85,WNW,300,0.8,5.1,58,0.00,,,0.00,WUHU216HW,2013-03-21 09:10:00,
2013-03-21 05:13:00,29.3,16.7,29.85,NW,309,1.8,3.8,59,0.00,,,0.00,WUHU216HW,2013-03-21 09:13:00,
2013-03-21 05:15:00,29.3,16.7,29.85,NW,321,1.4,3.8,59,0.00,,,0.00,WUHU216HW,2013-03-21 09:15:00,
2013-03-21 05:16:00,29.2,16.7,29.85,NW,315,1.8,3.8,59,0.00,,,0.00,WUHU216HW,2013-03-21 09:16:00,
2013-03-21 05:19:00,29.2,17.0,29.85,NW,315,2.5,3.8,60,0.00,,,0.00,WUHU216HW,2013-03-21 09:19:00,
2013-03-21 05:20:00,29.2,17.0,29.85,NNW,332,2.1,3.8,60,0.00,,,0.00,WUHU216HW,2013-03-21 09:20:00,
2013-03-21 05:21:00,29.2,17.0,29.85,NNW,332,1.7,3.8,60,0.00,,,0.00,WUHU216HW,2013-03-21 09:21:00,
2013-03-21 05:24:00,29.0,16.8,29.85,WNW,293,2.5,3.4,60,0.00,,,0.00,WUHU216HW,2013-03-21 09:24:00,
2013-03-21 05:26:00,29.0,16.8,29.85,West,270,2.5,3.4,60,0.00,,,0.00,WUHU216HW,2013-03-21 09:26:00,
2013-03-21 05:29:00,28.8,16.8,29.85,NW,315,1.1,3.4,60,0.00,,,0.00,WUHU216HW,2013-03-21 09:29:00,
2013-03-21 05:31:00,28.8,16.8,29.85,NW,315,2.7,3.4,60,0.00,,,0.00,WUHU216HW,2013-03-21 09:31:00,
2013-03-21 05:32:00,28.8,16.8,29.85,NW,318,1.8,3.4,60,0.00,,,0.00,WUHU216HW,2013-03-21 09:32:00,
2013-03-21 05:34:00,28.6,16.6,29.85,NNW,338,2.7,4.0,60,0.00,,,0.00,WUHU216HW,2013-03-21 09:34:00,
2013-03-21 05:36:00,28.6,16.6,29.85,NNW,327,1.8,4.0,60,0.00,,,0.00,WUHU216HW,2013-03-21 09:36:00,
2013-03-21 05:37:00,28.6,16.6,29.85,NW,324,1.7,4.0,60,0.00,,,0.00,WUHU216HW,2013-03-21 09:37:00,
2013-03-21 05:38:00,28.6,16.6,29.85,NNW,332,1.5,4.0,60,0.00,,,0.00,WUHU216HW,2013-03-21 09:38:00,
2013-03-21 05:40:00,28.4,16.7,29.85,WNW,293,0.9,4.0,61,0.00,,,0.00,WUHU216HW,2013-03-21 09:40:00,
2013-03-21 05:42:00,28.4,16.7,29.85,NW,312,1.5,4.0,61,0.00,,,0.00,WUHU216HW,2013-03-21 09:42:00,
2013-03-21 05:43:00,28.3,16.6,29.85,North,0,4.3,4.3,61,0.00,,,0.00,WUHU216HW,2013-03-21 09:43:00,
2013-03-21 05:47:00,28.3,15.8,29.86,NW,315,3.8,4.3,59,0.00,,,0.00,WUHU216HW,2013-03-21 09:47:00,
2013-03-21 05:48:00,28.3,15.8,29.86,NW,315,4.3,4.9,59,0.00,,,0.00,WUHU216HW,2013-03-21 09:48:00,
2013-03-21 05:50:00,28.4,15.9,29.86,NNW,329,3.2,4.9,59,0.00,,,0.00,WUHU216HW,2013-03-21 09:50:00,
2013-03-21 05:52:00,28.4,15.9,29.86,NNW,338,3.1,4.9,59,0.00,,,0.00,WUHU216HW,2013-03-21 09:52:00,
2013-03-21 05:53:00,28.4,15.9,29.86,NNW,338,2.7,4.9,59,0.00,,,0.00,WUHU216HW,2013-03-21 09:53:00,
2013-03-21 05:54:00,28.4,15.9,29.86,NNW,338,2.9,4.9,59,0.00,,,0.00,WUHU216HW,2013-03-21 09:54:00,
2013-03-21 05:55:00,28.4,15.6,29.86,North,0,4.5,4.9,58,0.00,,,0.00,WUHU216HW,2013-03-21 09:55:00,
2013-03-21 05:57:00,28.3,15.4,29.86,NNW,342,2.3,4.7,58,0.00,,,0.00,WUHU216HW,2013-03-21 09:57:00,
2013-03-21 05:58:00,28.3,15.4,29.86,NNW,347,2.3,4.7,58,0.00,,,0.00,WUHU216HW,2013-03-21 09:58:00,
2013-03-21 05:59:00,28.3,14.9,29.85,NNW,338,4.5,4.5,57,0.00,,,0.00,WUHU216HW,2013-03-21 09:59:00,
2013-03-21 06:00:00,28.3,14.9,29.86,NW,325,3.5,4.5,57,0.00,,,0.00,WUHU216HW,2013-03-21 10:00:00,
2013-03-21 06:03:00,28.3,14.6,29.86,NNW,331,2.7,6.0,56,0.00,,,0.00,WUHU216HW,2013-03-21 10:03:00,
2013-03-21 06:04:00,28.3,14.6,29.86,NNW,328,2.7,6.0,56,0.00,,,0.00,WUHU216HW,2013-03-21 10:04:00,
2013-03-21 06:06:00,28.3,14.1,29.86,NW,323,3.9,6.3,55,0.00,,,0.00,WUHU216HW,2013-03-21 10:06:00,
2013-03-21 06:08:00,28.3,14.1,29.86,NNW,329,4.5,6.3,55,0.00,,,0.00,WUHU216HW,2013-03-21 10:08:00,
2013-03-21 06:09:00,28.1,13.5,29.86,NNW,335,4.6,6.3,54,0.00,,,0.00,WUHU216HW,2013-03-21 10:09:00,
2013-03-21 06:10:00,28.3,13.7,29.86,NNW,341,3.9,6.3,54,0.00,,,0.00,WUHU216HW,2013-03-21 10:10:00,
2013-03-21 06:12:00,28.1,14.0,29.85,NW,315,3.4,6.3,55,0.00,,,0.00,WUHU216HW,2013-03-21 10:12:00,
2013-03-21 06:13:00,28.1,13.5,29.86,North,0,4.9,6.3,54,0.00,,,0.00,WUHU216HW,2013-03-21 10:13:00,
2013-03-21 06:15:00,28.1,13.5,29.86,NNW,340,4.4,6.3,54,0.00,,,0.00,WUHU216HW,2013-03-21 10:15:00,
2013-03-21 06:17:00,28.1,13.5,29.86,NNW,348,2.2,6.3,54,0.00,,,0.00,WUHU216HW,2013-03-21 10:17:00,
2013-03-21 06:20:00,27.9,13.3,29.86,North,357,2.9,6.0,54,0.00,,,0.00,WUHU216HW,2013-03-21 10:20:00,
2013-03-21 06:22:00,27.9,13.3,29.86,NNW,338,4.0,6.0,54,0.00,,,0.00,WUHU216HW,2013-03-21 10:22:00,
2013-03-21 06:25:00,27.7,13.1,29.86,NW,315,2.7,5.4,54,0.00,,,0.00,WUHU216HW,2013-03-21 10:25:00,
2013-03-21 06:26:00,27.7,13.1,29.86,NW,315,3.6,5.4,54,0.00,,,0.00,WUHU216HW,2013-03-21 10:26:00,
2013-03-21 06:27:00,27.7,13.1,29.86,NNW,338,3.4,5.4,54,0.00,,,0.00,WUHU216HW,2013-03-21 10:27:00,
2013-03-21 06:31:00,27.7,12.8,29.86,NW,321,3.2,6.0,53,0.00,,,0.00,WUHU216HW,2013-03-21 10:31:00,
2013-03-21 06:32:00,27.5,13.0,29.86,North,0,2.9,6.0,54,0.00,,,0.00,WUHU216HW,2013-03-21 10:32:00,
2013-03-21 06:37:00,27.5,13.4,29.85,NW,324,2.0,6.0,55,0.00,,,0.00,WUHU216HW,2013-03-21 10:37:00,
2013-03-21 06:38:00,27.4,12.8,29.85,NNW,338,2.7,6.0,54,0.00,,,0.00,WUHU216HW,2013-03-21 10:38:00,
2013-03-21 06:43:00,27.4,12.8,29.86,NNW,332,2.9,4.0,54,0.00,,,0.00,WUHU216HW,2013-03-21 10:43:00,
2013-03-21 06:44:00,27.4,12.8,29.86,NNW,332,2.9,4.0,54,0.00,,,0.00,WUHU216HW,2013-03-21 10:44:00,
2013-03-21 06:48:00,27.2,13.1,29.86,NNW,338,2.5,4.0,55,0.00,,,0.00,WUHU216HW,2013-03-21 10:48:00,
2013-03-21 06:49:00,27.2,12.6,29.86,NW,323,3.2,4.5,54,0.00,,,0.00,WUHU216HW,2013-03-21 10:49:00,
2013-03-21 06:50:00,27.2,12.6,29.86,NNW,338,6.9,6.9,54,0.00,,,0.00,WUHU216HW,2013-03-21 10:50:00,
2013-03-21 06:53:00,27.2,12.3,29.86,North,358,3.2,6.9,53,0.00,,,0.00,WUHU216HW,2013-03-21 10:53:00,
2013-03-21 06:54:00,27.2,12.3,29.86,North,351,2.9,6.9,53,0.00,,,0.00,WUHU216HW,2013-03-21 10:54:00,
2013-03-21 06:56:00,27.2,12.3,29.86,NW,309,3.1,6.9,53,0.00,,,0.00,WUHU216HW,2013-03-21 10:56:00,
2013-03-21 06:59:00,27.0,12.4,29.86,NNW,330,1.0,6.9,54,0.00,,,0.00,WUHU216HW,2013-03-21 10:59:00,
2013-03-21 07:01:00,27.0,12.1,29.86,West,270,3.4,6.7,53,0.00,,,0.00,WUHU216HW,2013-03-21 11:01:00,
2013-03-21 07:02:00,27.0,12.1,29.86,NW,315,4.7,5.1,53,0.00,,,0.00,WUHU216HW,2013-03-21 11:02:00,
2013-03-21 07:04:00,27.0,12.1,29.86,NNW,338,3.1,5.1,53,0.00,,,0.00,WUHU216HW,2013-03-21 11:04:00,
2013-03-21 07:06:00,27.0,12.1,29.86,NW,306,1.9,5.1,53,0.00,,,0.00,WUHU216HW,2013-03-21 11:06:00,
2013-03-21 07:07:00,27.0,12.1,29.86,NNW,338,2.0,5.1,53,0.00,,,0.00,WUHU216HW,2013-03-21 11:07:00,
2013-03-21 07:09:00,27.0,12.1,29.86,NNW,331,1.7,5.1,53,0.00,,,0.00,WUHU216HW,2013-03-21 11:09:00,
2013-03-21 07:10:00,27.0,12.1,29.86,North,349,1.2,5.1,53,0.00,,,0.00,WUHU216HW,2013-03-21 11:10:00,
2013-03-21 07:12:00,26.8,11.4,29.86,North,0,2.9,5.4,52,0.00,,,0.00,WUHU216HW,2013-03-21 11:12:00,
2013-03-21 07:13:00,26.8,11.4,29.86,NNW,342,2.8,5.4,52,0.00,,,0.00,WUHU216HW,2013-03-21 11:13:00,
2013-03-21 07:14:00,26.8,11.9,29.86,NW,325,2.0,5.4,53,0.00,,,0.00,WUHU216HW,2013-03-21 11:14:00,
2013-03-21 07:15:00,26.6,11.7,29.86,NW,316,2.0,5.4,53,0.00,,,0.00,WUHU216HW,2013-03-21 11:15:00,
2013-03-21 07:17:00,26.6,10.9,29.86,NNW,338,5.6,5.6,51,0.00,,,0.00,WUHU216HW,2013-03-21 11:17:00,
2013-03-21 07:18:00,26.6,11.3,29.86,North,352,4.2,5.6,52,0.00,,,0.00,WUHU216HW,2013-03-21 11:18:00,
2013-03-21 07:20:00,26.6,10.9,29.86,WNW,293,3.4,5.6,51,0.00,,,0.00,WUHU216HW,2013-03-21 11:20:00,
2013-03-21 07:22:00,26.6,10.9,29.86,NNW,336,2.1,5.6,51,0.00,,,0.00,WUHU216HW,2013-03-21 11:22:00,
2013-03-21 07:23:00,26.6,10.9,29.86,NNW,338,2.9,5.6,51,0.00,,,0.00,WUHU216HW,2013-03-21 11:23:00,
2013-03-21 07:25:00,26.6,10.4,29.86,North,0,5.1,6.3,50,0.00,,,0.00,WUHU216HW,2013-03-21 11:25:00,
2013-03-21 07:28:00,26.6,10.4,29.86,North,351,4.0,6.3,50,0.00,,,0.00,WUHU216HW,2013-03-21 11:28:00,
2013-03-21 07:29:00,26.6,10.4,29.86,NNW,345,3.1,6.3,50,0.00,,,0.00,WUHU216HW,2013-03-21 11:29:00,
2013-03-21 07:30:00,26.6,10.4,29.86,North,0,4.9,6.3,50,0.00,,,0.00,WUHU216HW,2013-03-21 11:30:00,
2013-03-21 07:34:00,26.5,10.7,29.86,NNW,333,2.6,6.3,51,0.00,,,0.00,WUHU216HW,2013-03-21 11:34:00,
2013-03-21 07:35:00,26.5,10.3,29.86,NNW,338,3.4,6.3,50,0.00,,,0.00,WUHU216HW,2013-03-21 11:35:00,
2013-03-21 07:39:00,26.3,11.0,29.86,WNW,293,2.5,4.9,52,0.00,,,0.00,WUHU216HW,2013-03-21 11:39:00,
2013-03-21 07:40:00,26.3,10.5,29.86,NW,315,2.7,4.9,51,0.00,,,0.00,WUHU216HW,2013-03-21 11:40:00,
2013-03-21 07:45:00,26.3,10.1,29.86,NW,310,2.7,5.4,50,0.00,,,0.00,WUHU216HW,2013-03-21 11:45:00,
2013-03-21 07:50:00,26.1,10.0,29.86,NNW,338,2.9,5.4,50,0.00,,,0.00,WUHU216HW,2013-03-21 11:50:00,
2013-03-21 07:52:00,26.1,9.5,29.86,North,0,3.1,5.4,49,0.00,,,0.00,WUHU216HW,2013-03-21 11:52:00,
2013-03-21 07:55:00,25.9,9.3,29.86,NW,315,4.7,5.8,49,0.00,,,0.00,WUHU216HW,2013-03-21 11:55:00,
2013-03-21 07:57:00,25.9,8.8,29.86,NW,315,3.6,6.0,48,0.00,,,0.00,WUHU216HW,2013-03-21 11:57:00,
2013-03-21 07:58:00,25.9,8.8,29.86,NW,315,3.6,6.0,48,0.00,,,0.00,WUHU216HW,2013-03-21 11:58:00,
2013-03-21 08:00:00,25.9,8.8,29.86,North,0,5.8,6.0,48,0.00,,,0.00,WUHU216HW,2013-03-21 12:00:00,
2013-03-21 08:03:00,26.1,9.0,29.86,North,0,3.8,6.0,48,0.00,,,0.00,WUHU216HW,2013-03-21 12:03:00,
2013-03-21 08:04:00,25.9,8.8,29.86,WNW,293,3.8,6.0,48,0.00,,,0.00,WUHU216HW,2013-03-21 12:04:00,
2013-03-21 08:06:00,26.1,9.0,29.86,North,0,3.9,5.8,48,0.00,,,0.00,WUHU216HW,2013-03-21 12:06:00,
2013-03-21 08:08:00,26.3,9.2,29.86,NNW,338,3.1,5.8,48,0.00,,,0.00,WUHU216HW,2013-03-21 12:08:00,
2013-03-21 08:09:00,26.3,9.2,29.86,NNW,338,3.1,5.8,48,0.00,,,0.00,WUHU216HW,2013-03-21 12:09:00,
2013-03-21 08:11:00,26.1,9.0,29.87,NNW,338,5.1,5.1,48,0.00,,,0.00,WUHU216HW,2013-03-21 12:11:00,
2013-03-21 08:19:00,26.3,9.2,29.87,NW,315,2.5,5.1,48,0.00,,,0.00,WUHU216HW,2013-03-21 12:19:00,
2013-03-21 08:20:00,26.3,9.2,29.87,NNW,331,1.5,5.1,48,0.00,,,0.00,WUHU216HW,2013-03-21 12:20:00,
2013-03-21 08:24:00,26.6,9.5,29.87,North,0,3.3,4.3,48,0.00,,,0.00,WUHU216HW,2013-03-21 12:24:00,
2013-03-21 08:25:00,26.6,9.5,29.87,North,0,3.3,4.3,48,0.00,,,0.00,WUHU216HW,2013-03-21 12:25:00,
2013-03-21 08:26:00,26.6,9.5,29.87,NNW,336,1.2,4.3,48,0.00,,,0.00,WUHU216HW,2013-03-21 12:26:00,
2013-03-21 08:30:00,26.8,9.6,29.88,North,0,1.6,4.3,48,0.00,,,0.00,WUHU216HW,2013-03-21 12:30:00,
2013-03-21 08:32:00,27.0,9.8,29.88,NNW,346,0.6,4.3,48,0.00,,,0.00,WUHU216HW,2013-03-21 12:32:00,
2013-03-21 08:35:00,27.0,9.8,29.88,North,0,4.7,5.4,48,0.00,,,0.00,WUHU216HW,2013-03-21 12:35:00,
2013-03-21 08:36:00,27.2,10.0,29.88,North,354,3.8,5.4,48,0.00,,,0.00,WUHU216HW,2013-03-21 12:36:00,
2013-03-21 08:37:00,27.2,10.0,29.88,NNW,348,3.0,5.4,48,0.00,,,0.00,WUHU216HW,2013-03-21 12:37:00,
2013-03-21 08:40:00,27.5,10.4,29.88,North,350,2.6,5.4,48,0.00,,,0.00,WUHU216HW,2013-03-21 12:40:00,
2013-03-21 08:41:00,27.5,10.4,29.88,North,351,2.5,5.4,48,0.00,,,0.00,WUHU216HW,2013-03-21 12:41:00,
2013-03-21 08:43:00,27.7,9.6,29.88,NNW,338,3.4,5.4,46,0.00,,,0.00,WUHU216HW,2013-03-21 12:43:00,
2013-03-21 08:44:00,27.7,10.0,29.88,North,354,3.4,5.4,47,0.00,,,0.00,WUHU216HW,2013-03-21 12:44:00,
2013-03-21 08:45:00,27.7,10.5,29.88,NNW,341,2.1,4.7,48,0.00,,,0.00,WUHU216HW,2013-03-21 12:45:00,
2013-03-21 08:46:00,27.7,10.5,29.88,NNW,342,1.8,4.7,48,0.00,,,0.00,WUHU216HW,2013-03-21 12:46:00,
2013-03-21 08:49:00,28.1,10.4,29.88,North,0,6.9,6.9,47,0.00,,,0.00,WUHU216HW,2013-03-21 12:49:00,
2013-03-21 08:50:00,28.1,10.4,29.88,NNW,340,3.7,6.9,47,0.00,,,0.00,WUHU216HW,2013-03-21 12:50:00,
2013-03-21 08:51:00,28.1,10.9,29.88,WNW,297,3.5,6.9,48,0.00,,,0.00,WUHU216HW,2013-03-21 12:51:00,
2013-03-21 08:55:00,28.4,11.3,29.89,NNW,338,1.3,6.9,48,0.00,,,0.00,WUHU216HW,2013-03-21 12:55:00,
2013-03-21 08:56:00,28.4,11.3,29.88,NW,316,1.7,6.9,48,0.00,,,0.00,WUHU216HW,2013-03-21 12:56:00,
2013-03-21 08:57:00,28.4,11.3,29.88,WNW,293,2.5,6.9,48,0.00,,,0.00,WUHU216HW,2013-03-21 12:57:00,
2013-03-21 08:58:00,28.6,11.4,29.89,NW,312,2.6,6.9,48,0.00,,,0.00,WUHU216HW,2013-03-21 12:58:00,
2013-03-21 09:01:00,28.8,11.1,29.89,NNW,338,5.8,5.8,47,0.00,,,0.00,WUHU216HW,2013-03-21 13:01:00,
2013-03-21 09:02:00,28.8,11.1,29.89,NNW,333,4.5,5.8,47,0.00,,,0.00,WUHU216HW,2013-03-21 13:02:00,
2013-03-21 09:03:00,29.0,11.3,29.89,NNW,330,3.1,5.8,47,0.00,,,0.00,WUHU216HW,2013-03-21 13:03:00,
2013-03-21 09:06:00,29.2,11.9,29.89,NW,315,4.7,6.0,48,0.00,,,0.00,WUHU216HW,2013-03-21 13:06:00,
2013-03-21 09:07:00,29.0,11.3,29.89,NW,315,4.5,6.0,47,0.00,,,0.00,WUHU216HW,2013-03-21 13:07:00,
2013-03-21 09:08:00,29.2,11.9,29.89,West,270,3.8,6.0,48,0.00,,,0.00,WUHU216HW,2013-03-21 13:08:00,
2013-03-21 09:09:00,29.2,11.9,29.89,WNW,294,2.7,6.0,48,0.00,,,0.00,WUHU216HW,2013-03-21 13:09:00,
2013-03-21 09:12:00,29.2,11.3,29.89,WNW,297,3.3,6.0,47,0.00,,,0.00,WUHU216HW,2013-03-21 13:12:00,
2013-03-21 09:13:00,29.2,11.3,29.89,WNW,299,3.2,6.0,47,0.00,,,0.00,WUHU216HW,2013-03-21 13:13:00,
2013-03-21 09:14:00,29.2,11.3,29.89,WNW,293,4.7,5.8,47,0.00,,,0.00,WUHU216HW,2013-03-21 13:14:00,
2013-03-21 09:15:00,29.2,11.3,29.89,NW,316,3.8,5.8,47,0.00,,,0.00,WUHU216HW,2013-03-21 13:15:00,
2013-03-21 09:17:00,29.3,11.5,29.89,NW,315,5.8,6.0,47,0.00,,,0.00,WUHU216HW,2013-03-21 13:17:00,
2013-03-21 09:19:00,29.3,11.5,29.89,NNW,341,3.2,6.0,47,0.00,,,0.00,WUHU216HW,2013-03-21 13:19:00,
2013-03-21 09:20:00,29.5,11.2,29.89,NW,315,2.5,6.0,46,0.00,,,0.00,WUHU216HW,2013-03-21 13:20:00,
2013-03-21 09:22:00,29.5,11.7,29.89,NW,315,3.4,6.0,47,0.00,,,0.00,WUHU216HW,2013-03-21 13:22:00,
2013-03-21 09:25:00,29.7,11.9,29.90,NNW,338,5.8,6.0,47,0.00,,,0.00,WUHU216HW,2013-03-21 13:25:00,
2013-03-21 09:26:00,29.7,10.9,29.89,NNW,333,4.4,6.0,45,0.00,,,0.00,WUHU216HW,2013-03-21 13:26:00,
2013-03-21 09:28:00,29.7,11.3,29.89,North,0,4.0,5.8,46,0.00,,,0.00,WUHU216HW,2013-03-21 13:28:00,
2013-03-21 09:30:00,29.7,10.9,29.90,NW,315,7.6,7.6,45,0.00,,,0.00,WUHU216HW,2013-03-21 13:30:00,
2013-03-21 09:31:00,29.7,10.4,29.90,NNW,329,5.0,7.6,44,0.00,,,0.00,WUHU216HW,2013-03-21 13:31:00,
2013-03-21 09:33:00,29.9,10.5,29.90,North,0,6.9,7.6,44,0.00,,,0.00,WUHU216HW,2013-03-21 13:33:00,
2013-03-21 09:36:00,29.9,10.5,29.90,NNW,348,3.7,7.6,44,0.00,,,0.00,WUHU216HW,2013-03-21 13:36:00,
2013-03-21 09:37:00,29.9,10.5,29.90,NW,315,5.6,7.6,44,0.00,,,0.00,WUHU216HW,2013-03-21 13:37:00,
2013-03-21 09:38:00,29.9,10.5,29.90,North,354,4.7,7.6,44,0.00,,,0.00,WUHU216HW,2013-03-21 13:38:00,
2013-03-21 09:39:00,29.9,10.0,29.90,NNW,338,6.7,7.6,43,0.00,,,0.00,WUHU216HW,2013-03-21 13:39:00,
2013-03-21 09:42:00,29.9,10.0,29.90,NNW,328,5.4,6.9,43,0.00,,,0.00,WUHU216HW,2013-03-21 13:42:00,
2013-03-21 09:44:00,29.9,10.0,29.91,NNW,338,3.6,6.7,43,0.00,,,0.00,WUHU216HW,2013-03-21 13:44:00,
2013-03-21 09:45:00,29.9,10.0,29.90,WNW,293,3.4,6.7,43,0.00,,,0.00,WUHU216HW,2013-03-21 13:45:00,
2013-03-21 09:47:00,29.9,10.5,29.91,North,351,4.4,6.7,44,0.00,,,0.00,WUHU216HW,2013-03-21 13:47:00,
2013-03-21 09:49:00,30.1,10.7,29.91,NNW,338,3.8,6.7,44,0.00,,,0.00,WUHU216HW,2013-03-21 13:49:00,
2013-03-21 09:50:00,30.2,10.4,29.91,North,0,5.4,6.7,43,0.00,,,0.00,WUHU216HW,2013-03-21 13:50:00,
2013-03-21 09:52:00,30.2,10.8,29.91,NNW,347,3.1,5.4,44,0.00,,,0.00,WUHU216HW,2013-03-21 13:52:00,
2013-03-21 09:53:00,30.2,10.8,29.91,NW,315,4.3,5.4,44,0.00,,,0.00,WUHU216HW,2013-03-21 13:53:00,
2013-03-21 09:54:00,30.6,10.6,29.91,North,0,5.8,5.8,43,0.00,,,0.00,WUHU216HW,2013-03-21 13:54:00,
2013-03-21 09:57:00,30.6,10.6,29.91,NNW,334,4.2,6.9,43,0.00,,,0.00,WUHU216HW,2013-03-21 13:57:00,
2013-03-21 09:59:00,30.6,10.6,29.91,NW,325,4.3,6.9,43,0.00,,,0.00,WUHU216HW,2013-03-21 13:59:00,
2013-03-21 10:00:00,30.6,10.2,29.91,North,359,3.6,6.9,42,0.00,,,0.00,WUHU216HW,2013-03-21 14:00:00,
2013-03-21 10:03:00,30.6,10.2,29.91,WNW,293,7.6,7.6,42,0.00,,,0.00,WUHU216HW,2013-03-21 14:03:00,
2013-03-21 10:05:00,30.6,9.6,29.91,NNW,342,4.4,7.6,41,0.00,,,0.00,WUHU216HW,2013-03-21 14:05:00,
2013-03-21 10:06:00,30.6,10.6,29.91,North,0,3.6,7.6,43,0.00,,,0.00,WUHU216HW,2013-03-21 14:06:00,
2013-03-21 10:08:00,30.8,10.4,29.91,NNW,333,3.4,7.6,42,0.00,,,0.00,WUHU216HW,2013-03-21 14:08:00,
2013-03-21 10:10:00,30.8,10.4,29.91,NW,323,5.2,9.6,42,0.00,,,0.00,WUHU216HW,2013-03-21 14:10:00,
2013-03-21 10:11:00,30.8,10.4,29.91,NW,313,5.2,9.6,42,0.00,,,0.00,WUHU216HW,2013-03-21 14:11:00,
2013-03-21 10:13:00,30.8,10.4,29.91,NNW,338,6.3,9.6,42,0.00,,,0.00,WUHU216HW,2013-03-21 14:13:00,
2013-03-21 10:17:00,31.0,10.4,29.91,NW,308,4.7,9.6,42,0.00,,,0.00,WUHU216HW,2013-03-21 14:17:00,
2013-03-21 10:18:00,31.0,10.4,29.91,NNW,346,3.3,9.6,42,0.00,,,0.00,WUHU216HW,2013-03-21 14:18:00,
2013-03-21 10:19:00,31.0,10.4,29.91,North,351,3.1,9.6,42,0.00,,,0.00,WUHU216HW,2013-03-21 14:19:00,
2013-03-21 10:22:00,31.3,10.8,29.91,North,6,3.4,6.9,42,0.00,,,0.00,WUHU216HW,2013-03-21 14:22:00,
2013-03-21 10:23:00,31.5,11.4,29.91,NNW,338,3.4,6.9,43,0.00,,,0.00,WUHU216HW,2013-03-21 14:23:00,
2013-03-21 10:24:00,31.7,11.6,29.91,North,0,4.0,5.6,43,0.00,,,0.00,WUHU216HW,2013-03-21 14:24:00,
2013-03-21 10:25:00,31.7,11.2,29.91,North,0,5.8,5.8,42,0.00,,,0.00,WUHU216HW,2013-03-21 14:25:00,
2013-03-21 10:28:00,32.0,11.4,29.91,WNW,293,6.3,8.5,42,0.00,,,0.00,WUHU216HW,2013-03-21 14:28:00,
2013-03-21 10:29:00,32.0,11.0,29.91,WNW,293,6.3,8.5,41,0.00,,,0.00,WUHU216HW,2013-03-21 14:29:00,
2013-03-21 10:30:00,32.0,11.0,29.91,WNW,301,5.7,8.5,41,0.00,,,0.00,WUHU216HW,2013-03-21 14:30:00,
2013-03-21 10:33:00,32.2,11.1,29.91,NNW,340,5.2,8.5,41,0.00,,,0.00,WUHU216HW,2013-03-21 14:33:00,
2013-03-21 10:35:00,32.4,11.8,29.91,North,4,3.4,8.5,42,0.00,,,0.00,WUHU216HW,2013-03-21 14:35:00,
2013-03-21 10:38:00,32.8,12.1,29.91,NW,323,2.4,8.3,42,0.00,,,0.00,WUHU216HW,2013-03-21 14:38:00,
2013-03-21 10:40:00,32.9,11.8,29.91,NNW,336,3.1,6.3,41,0.00,,,0.00,WUHU216HW,2013-03-21 14:40:00,
2013-03-21 10:43:00,32.8,11.6,29.91,North,354,3.8,6.3,41,0.00,,,0.00,WUHU216HW,2013-03-21 14:43:00,
2013-03-21 10:45:00,32.8,12.1,29.91,NNW,338,3.6,6.3,42,0.00,,,0.00,WUHU216HW,2013-03-21 14:45:00,
2013-03-21 10:47:00,32.8,11.1,29.91,North,0,3.4,6.3,40,0.00,,,0.00,WUHU216HW,2013-03-21 14:47:00,
2013-03-21 10:48:00,32.9,12.2,29.91,North,0,3.4,6.3,42,0.00,,,0.00,WUHU216HW,2013-03-21 14:48:00,
2013-03-21 10:49:00,32.9,11.8,29.91,NNW,345,3.0,6.3,41,0.00,,,0.00,WUHU216HW,2013-03-21 14:49:00,
2013-03-21 10:50:00,33.3,12.1,29.91,NNW,338,4.5,6.3,41,0.00,,,0.00,WUHU216HW,2013-03-21 14:50:00,
2013-03-21 10:52:00,33.3,12.6,29.91,NW,309,3.4,6.3,42,0.00,,,0.00,WUHU216HW,2013-03-21 14:52:00,
2013-03-21 10:54:00,33.5,12.2,29.91,West,270,5.4,6.5,41,0.00,,,0.00,WUHU216HW,2013-03-21 14:54:00,
2013-03-21 10:56:00,33.8,12.6,29.91,North,0,3.8,6.5,41,0.00,,,0.00,WUHU216HW,2013-03-21 14:56:00,
2013-03-21 10:57:00,34.0,13.2,29.91,WNW,298,4.0,7.4,42,0.00,,,0.00,WUHU216HW,2013-03-21 14:57:00,
2013-03-21 10:59:00,34.2,12.9,29.91,NNW,338,2.7,7.4,41,0.00,,,0.00,WUHU216HW,2013-03-21 14:59:00,
2013-03-21 11:01:00,34.4,11.9,29.91,NNW,338,3.5,7.4,39,0.00,,,0.00,WUHU216HW,2013-03-21 15:01:00,
2013-03-21 11:03:00,34.4,12.5,29.91,North,0,4.3,7.4,40,0.00,,,0.00,WUHU216HW,2013-03-21 15:03:00,
2013-03-21 11:04:00,34.2,12.9,29.91,North,0,3.6,7.4,41,0.00,,,0.00,WUHU216HW,2013-03-21 15:04:00,
2013-03-21 11:07:00,34.2,11.8,29.91,NE,45,4.7,5.6,39,0.00,,,0.00,WUHU216HW,2013-03-21 15:07:00,
2013-03-21 11:08:00,34.0,12.7,29.91,NNW,338,4.0,5.6,41,0.00,,,0.00,WUHU216HW,2013-03-21 15:08:00,
2013-03-21 11:09:00,34.2,12.9,29.91,NW,315,4.0,5.6,41,0.00,,,0.00,WUHU216HW,2013-03-21 15:09:00,
2013-03-21 11:10:00,34.2,11.8,29.91,NNW,338,3.4,5.6,39,0.00,,,0.00,WUHU216HW,2013-03-21 15:10:00,
2013-03-21 11:14:00,34.2,12.4,29.91,NW,315,3.4,5.6,40,0.00,,,0.00,WUHU216HW,2013-03-21 15:14:00,
2013-03-21 11:15:00,34.4,12.5,29.91,North,0,4.0,5.6,40,0.00,,,0.00,WUHU216HW,2013-03-21 15:15:00,
2013-03-21 11:19:00,34.4,11.3,29.91,NW,317,4.0,6.9,38,0.00,,,0.00,WUHU216HW,2013-03-21 15:19:00,
2013-03-21 11:20:00,34.4,11.9,29.91,NW,315,5.6,6.9,39,0.00,,,0.00,WUHU216HW,2013-03-21 15:20:00,
2013-03-21 11:24:00,34.7,12.3,29.91,WNW,293,4.7,6.9,39,0.00,,,0.00,WUHU216HW,2013-03-21 15:24:00,
2013-03-21 11:25:00,34.9,12.4,29.91,NW,312,4.1,6.9,39,0.00,,,0.00,WUHU216HW,2013-03-21 15:25:00,
2013-03-21 11:26:00,34.9,12.4,29.91,NW,305,3.7,6.9,39,0.00,,,0.00,WUHU216HW,2013-03-21 15:26:00,
2013-03-21 11:29:00,35.1,12.5,29.91,NNW,348,5.0,7.4,39,0.00,,,0.00,WUHU216HW,2013-03-21 15:29:00,
2013-03-21 11:31:00,34.9,12.4,29.91,NNW,340,4.2,7.4,39,0.00,,,0.00,WUHU216HW,2013-03-21 15:31:00,
2013-03-21 11:32:00,34.9,11.8,29.91,North,0,4.7,7.4,38,0.00,,,0.00,WUHU216HW,2013-03-21 15:32:00,
2013-03-21 11:35:00,34.9,11.8,29.91,NW,319,3.0,7.4,38,0.00,,,0.00,WUHU216HW,2013-03-21 15:35:00,
2013-03-21 11:36:00,34.9,12.4,29.91,NE,44,1.5,7.4,39,0.00,,,0.00,WUHU216HW,2013-03-21 15:36:00,
2013-03-21 11:37:00,34.9,12.4,29.91,WNW,293,3.1,7.4,39,0.00,,,0.00,WUHU216HW,2013-03-21 15:37:00,
2013-03-21 11:38:00,34.9,12.4,29.91,NNW,338,3.4,5.8,39,0.00,,,0.00,WUHU216HW,2013-03-21 15:38:00,
2013-03-21 11:41:00,35.5,12.9,29.91,NW,310,3.0,7.8,39,0.00,,,0.00,WUHU216HW,2013-03-21 15:41:00,
2013-03-21 11:42:00,35.6,13.1,29.91,NW,311,3.2,7.8,39,0.00,,,0.00,WUHU216HW,2013-03-21 15:42:00,
2013-03-21 11:43:00,35.6,12.4,29.91,North,0,4.3,7.8,38,0.00,,,0.00,WUHU216HW,2013-03-21 15:43:00,
2013-03-21 11:47:00,35.5,12.9,29.91,North,0,4.5,7.8,39,0.00,,,0.00,WUHU216HW,2013-03-21 15:47:00,
2013-03-21 11:48:00,35.5,12.3,29.91,NNW,336,2.9,7.8,38,0.00,,,0.00,WUHU216HW,2013-03-21 15:48:00,
2013-03-21 11:52:00,36.2,13.5,29.91,NW,315,4.7,6.5,39,0.00,,,0.00,WUHU216HW,2013-03-21 15:52:00,
2013-03-21 11:53:00,36.4,13.1,29.91,NW,315,5.4,6.5,38,0.00,,,0.00,WUHU216HW,2013-03-21 15:53:00,
2013-03-21 11:54:00,36.4,13.1,29.91,NW,315,5.4,6.5,38,0.00,,,0.00,WUHU216HW,2013-03-21 15:54:00,
2013-03-21 11:58:00,36.0,11.4,29.91,NW,317,4.2,7.6,36,0.00,,,0.00,WUHU216HW,2013-03-21 15:58:00,
2013-03-21 11:59:00,36.0,12.1,29.91,North,0,4.7,7.6,37,0.00,,,0.00,WUHU216HW,2013-03-21 15:59:00,
2013-03-21 12:00:00,35.8,11.9,29.90,NW,324,3.5,7.6,37,0.00,,,0.00,WUHU216HW,2013-03-21 16:00:00,
2013-03-21 12:03:00,36.2,11.6,29.91,NW,310,7.2,9.8,36,0.00,,,0.00,WUHU216HW,2013-03-21 16:03:00,
2013-03-21 12:04:00,36.2,12.3,29.91,WNW,297,6.8,9.8,37,0.00,,,0.00,WUHU216HW,2013-03-21 16:04:00,
2013-03-21 12:05:00,36.4,13.1,29.91,WNW,298,5.1,9.8,38,0.00,,,0.00,WUHU216HW,2013-03-21 16:05:00,
2013-03-21 12:09:00,36.9,12.3,29.91,WNW,300,3.7,9.8,36,0.00,,,0.00,WUHU216HW,2013-03-21 16:09:00,
2013-03-21 12:10:00,36.9,12.3,29.91,WNW,302,3.7,9.8,36,0.00,,,0.00,WUHU216HW,2013-03-21 16:10:00,
2013-03-21 12:15:00,36.9,12.3,29.91,WNW,295,3.6,8.7,36,0.00,,,0.00,WUHU216HW,2013-03-21 16:15:00,
2013-03-21 12:16:00,36.9,12.3,29.91,NW,315,3.4,8.7,36,0.00,,,0.00,WUHU216HW,2013-03-21 16:16:00,
2013-03-21 12:21:00,37.3,11.9,29.90,North,2,3.2,8.7,35,0.00,,,0.00,WUHU216HW,2013-03-21 16:21:00,
2013-03-21 12:22:00,37.3,11.9,29.90,North,0,3.6,8.7,35,0.00,,,0.00,WUHU216HW,2013-03-21 16:22:00,
2013-03-21 12:23:00,37.1,11.7,29.90,NNE,20,4.0,6.7,35,0.00,,,0.00,WUHU216HW,2013-03-21 16:23:00,
2013-03-21 12:26:00,37.1,10.4,29.90,North,0,7.4,7.6,33,0.00,,,0.00,WUHU216HW,2013-03-21 16:26:00,
2013-03-21 12:28:00,37.1,10.4,29.90,NNW,333,4.7,7.6,33,0.00,,,0.00,WUHU216HW,2013-03-21 16:28:00,
2013-03-21 12:29:00,37.1,11.7,29.90,NW,311,4.2,7.6,35,0.00,,,0.00,WUHU216HW,2013-03-21 16:29:00,
2013-03-21 12:31:00,37.3,10.0,29.90,WNW,293,9.2,9.2,32,0.00,,,0.00,WUHU216HW,2013-03-21 16:31:00,
2013-03-21 12:32:00,37.3,10.0,29.90,NW,315,6.9,9.2,32,0.00,,,0.00,WUHU216HW,2013-03-21 16:32:00,
2013-03-21 12:33:00,37.3,10.6,29.90,WNW,287,5.4,9.2,33,0.00,,,0.00,WUHU216HW,2013-03-21 16:33:00,
2013-03-21 12:35:00,37.4,10.8,29.90,NW,312,3.6,9.2,33,0.00,,,0.00,WUHU216HW,2013-03-21 16:35:00,
2013-03-21 12:36:00,37.6,10.9,29.90,WNW,292,4.1,9.2,33,0.00,,,0.00,WUHU216HW,2013-03-21 16:36:00,
2013-03-21 12:38:00,37.8,12.4,29.90,WNW,293,5.1,9.2,35,0.00,,,0.00,WUHU216HW,2013-03-21 16:38:00,
2013-03-21 12:40:00,38.2,12.1,29.90,WNW,293,5.4,9.2,34,0.00,,,0.00,WUHU216HW,2013-03-21 16:40:00,
2013-03-21 12:42:00,38.3,12.3,29.90,NNW,330,5.5,7.4,34,0.00,,,0.00,WUHU216HW,2013-03-21 16:42:00,
2013-03-21 12:43:00,38.3,12.9,29.90,WNW,293,6.9,8.1,35,0.00,,,0.00,WUHU216HW,2013-03-21 16:43:00,
2013-03-21 12:44:00,38.3,12.9,29.90,West,264,5.6,8.1,35,0.00,,,0.00,WUHU216HW,2013-03-21 16:44:00,
2013-03-21 12:45:00,38.5,13.7,29.90,WSW,258,3.3,8.1,36,0.00,,,0.00,WUHU216HW,2013-03-21 16:45:00,
2013-03-21 12:48:00,38.7,14.5,29.90,SW,225,2.9,8.1,37,0.00,,,0.00,WUHU216HW,2013-03-21 16:48:00,
2013-03-21 12:49:00,39.1,14.9,29.90,SSE,168,2.7,8.1,37,0.00,,,0.00,WUHU216HW,2013-03-21 16:49:00,
2013-03-21 12:51:00,39.2,14.9,29.90,NW,315,3.6,8.1,37,0.00,,,0.00,WUHU216HW,2013-03-21 16:51:00,
2013-03-21 12:53:00,39.6,14.1,29.90,WNW,286,4.5,8.1,35,0.00,,,0.00,WUHU216HW,2013-03-21 16:53:00,
2013-03-21 12:54:00,39.6,13.3,29.89,North,0,4.0,6.3,34,0.00,,,0.00,WUHU216HW,2013-03-21 16:54:00,
2013-03-21 12:55:00,39.6,13.3,29.89,North,0,4.0,6.3,34,0.00,,,0.00,WUHU216HW,2013-03-21 16:55:00,
2013-03-21 12:57:00,39.6,12.7,29.89,NNW,338,6.9,6.9,33,0.00,,,0.00,WUHU216HW,2013-03-21 16:57:00,
2013-03-21 12:58:00,40.0,14.3,29.90,West,274,6.4,10.3,35,0.00,,,0.00,WUHU216HW,2013-03-21 16:58:00,
2013-03-21 13:00:00,40.1,13.2,29.89,NW,315,3.1,10.3,33,0.00,,,0.00,WUHU216HW,2013-03-21 17:00:00,
2013-03-21 13:02:00,40.0,12.4,29.89,North,0,4.0,10.3,32,0.00,,,0.00,WUHU216HW,2013-03-21 17:02:00,
2013-03-21 13:04:00,40.0,12.4,29.89,WNW,293,7.6,10.3,32,0.00,,,0.00,WUHU216HW,2013-03-21 17:04:00,
2013-03-21 13:05:00,40.0,12.4,29.89,West,277,5.8,10.3,32,0.00,,,0.00,WUHU216HW,2013-03-21 17:05:00,
2013-03-21 13:07:00,40.1,13.2,29.89,NNE,23,2.9,10.3,33,0.00,,,0.00,WUHU216HW,2013-03-21 17:07:00,
2013-03-21 13:09:00,40.1,13.9,29.89,NNE,23,5.4,7.6,34,0.00,,,0.00,WUHU216HW,2013-03-21 17:09:00,
2013-03-21 13:10:00,40.0,12.4,29.89,North,352,4.9,7.6,32,0.00,,,0.00,WUHU216HW,2013-03-21 17:10:00,
2013-03-21 13:11:00,40.0,12.4,29.89,North,352,4.9,7.6,32,0.00,,,0.00,WUHU216HW,2013-03-21 17:11:00,
2013-03-21 13:12:00,40.0,12.4,29.89,North,358,3.7,7.6,32,0.00,,,0.00,WUHU216HW,2013-03-21 17:12:00,
2013-03-21 13:14:00,40.0,13.1,29.88,WNW,293,4.5,7.6,33,0.00,,,0.00,WUHU216HW,2013-03-21 17:14:00,
2013-03-21 13:15:00,40.3,12.7,29.89,NW,315,6.0,6.3,32,0.00,,,0.00,WUHU216HW,2013-03-21 17:15:00,
2013-03-21 13:17:00,40.3,10.5,29.89,WNW,293,7.6,7.6,29,0.00,,,0.00,WUHU216HW,2013-03-21 17:17:00,
2013-03-21 13:18:00,40.3,10.5,29.89,WNW,293,7.6,7.6,29,0.00,,,0.00,WUHU216HW,2013-03-21 17:18:00,
2013-03-21 13:19:00,40.1,10.4,29.89,WNW,293,5.7,7.6,29,0.00,,,0.00,WUHU216HW,2013-03-21 17:19:00,
2013-03-21 13:20:00,39.8,12.3,29.88,NNE,27,9.1,10.7,32,0.00,,,0.00,WUHU216HW,2013-03-21 17:20:00,
2013-03-21 13:24:00,40.0,14.3,29.88,WNW,283,3.3,10.7,35,0.00,,,0.00,WUHU216HW,2013-03-21 17:24:00,
2013-03-21 13:25:00,40.0,14.3,29.88,WNW,296,2.0,10.7,35,0.00,,,0.00,WUHU216HW,2013-03-21 17:25:00,
2013-03-21 13:26:00,40.3,13.3,29.89,NNW,338,3.8,10.7,33,0.00,,,0.00,WUHU216HW,2013-03-21 17:26:00,
2013-03-21 13:29:00,40.7,13.1,29.88,NNE,26,4.7,10.7,32,0.00,,,0.00,WUHU216HW,2013-03-21 17:29:00,
2013-03-21 13:30:00,40.7,13.1,29.88,ENE,68,5.6,7.6,32,0.00,,,0.00,WUHU216HW,2013-03-21 17:30:00,
2013-03-21 13:33:00,40.1,11.9,29.88,North,0,6.0,6.5,31,0.00,,,0.00,WUHU216HW,2013-03-21 17:33:00,
2013-03-21 13:35:00,40.0,12.4,29.88,North,9,5.6,7.8,32,0.00,,,0.00,WUHU216HW,2013-03-21 17:35:00,
2013-03-21 13:37:00,40.0,11.7,29.88,NNW,337,4.8,7.8,31,0.00,,,0.00,WUHU216HW,2013-03-21 17:37:00,
2013-03-21 13:38:00,40.0,11.1,29.88,North,350,4.3,7.8,30,0.00,,,0.00,WUHU216HW,2013-03-21 17:38:00,
2013-03-21 13:40:00,40.0,12.4,29.88,WNW,293,5.3,7.8,32,0.00,,,0.00,WUHU216HW,2013-03-21 17:40:00,
2013-03-21 13:42:00,40.1,11.9,29.88,NNW,338,6.4,7.8,31,0.00,,,0.00,WUHU216HW,2013-03-21 17:42:00,
2013-03-21 13:43:00,40.3,12.7,29.88,WSW,248,4.3,6.9,32,0.00,,,0.00,WUHU216HW,2013-03-21 17:43:00,
2013-03-21 13:46:00,40.9,15.1,29.87,North,0,4.0,6.9,35,0.00,,,0.00,WUHU216HW,2013-03-21 17:46:00,
2013-03-21 13:47:00,41.0,12.7,29.87,North,0,4.0,6.9,31,0.00,,,0.00,WUHU216HW,2013-03-21 17:47:00,
2013-03-21 13:49:00,41.0,13.3,29.87,North,350,2.6,6.9,32,0.00,,,0.00,WUHU216HW,2013-03-21 17:49:00,
2013-03-21 13:50:00,41.4,14.3,29.87,West,270,3.4,6.9,33,0.00,,,0.00,WUHU216HW,2013-03-21 17:50:00,
2013-03-21 13:52:00,41.8,14.6,29.87,NNW,338,5.4,5.4,33,0.00,,,0.00,WUHU216HW,2013-03-21 17:52:00,
2013-03-21 13:54:00,41.8,11.7,29.87,NW,315,2.9,5.4,29,0.00,,,0.00,WUHU216HW,2013-03-21 17:54:00,
2013-03-21 13:55:00,41.9,13.4,29.87,NNW,334,2.6,5.4,31,0.00,,,0.00,WUHU216HW,2013-03-21 17:55:00,
2013-03-21 13:58:00,42.3,15.0,29.87,West,271,2.8,5.4,33,0.00,,,0.00,WUHU216HW,2013-03-21 17:58:00,
2013-03-21 13:59:00,42.7,16.0,29.87,NW,322,1.3,5.4,34,0.00,,,0.00,WUHU216HW,2013-03-21 17:59:00,
2013-03-21 14:00:00,42.7,14.7,29.87,NNW,338,4.5,5.4,32,0.00,,,0.00,WUHU216HW,2013-03-21 18:00:00,
2013-03-21 14:01:00,42.8,14.9,29.87,NNW,329,2.8,5.4,32,0.00,,,0.00,WUHU216HW,2013-03-21 18:01:00,
2013-03-21 14:03:00,43.0,15.0,29.87,NNW,338,4.5,4.5,32,0.00,,,0.00,WUHU216HW,2013-03-21 18:03:00,
2013-03-21 14:04:00,43.2,15.9,29.87,West,270,6.3,6.9,33,0.00,,,0.00,WUHU216HW,2013-03-21 18:04:00,
2013-03-21 14:06:00,43.2,15.9,29.87,WNW,292,4.2,6.9,33,0.00,,,0.00,WUHU216HW,2013-03-21 18:06:00,
2013-03-21 14:08:00,43.6,15.5,29.87,NW,315,7.6,7.6,32,0.00,,,0.00,WUHU216HW,2013-03-21 18:08:00,
2013-03-21 14:10:00,43.6,15.5,29.86,NNW,333,4.4,7.6,32,0.00,,,0.00,WUHU216HW,2013-03-21 18:10:00,
2013-03-21 14:12:00,43.6,15.5,29.86,North,2,3.5,7.6,32,0.00,,,0.00,WUHU216HW,2013-03-21 18:12:00,
2013-03-21 14:14:00,43.2,15.1,29.86,WNW,286,3.8,7.6,32,0.00,,,0.00,WUHU216HW,2013-03-21 18:14:00,
2013-03-21 14:17:00,43.2,13.9,29.86,NW,312,4.7,7.6,30,0.00,,,0.00,WUHU216HW,2013-03-21 18:17:00,
2013-03-21 14:18:00,43.0,13.7,29.86,NNW,338,4.7,7.6,30,0.00,,,0.00,WUHU216HW,2013-03-21 18:18:00,
2013-03-21 14:19:00,43.0,14.3,29.86,NNW,343,3.9,7.6,31,0.00,,,0.00,WUHU216HW,2013-03-21 18:19:00,
2013-03-21 14:23:00,43.0,14.3,29.86,NNW,339,2.7,7.6,31,0.00,,,0.00,WUHU216HW,2013-03-21 18:23:00,
2013-03-21 14:24:00,43.0,12.8,29.86,North,0,3.4,7.6,29,0.00,,,0.00,WUHU216HW,2013-03-21 18:24:00,
2013-03-21 14:25:00,43.0,13.7,29.86,NW,315,3.4,7.6,30,0.00,,,0.00,WUHU216HW,2013-03-21 18:25:00,
2013-03-21 14:29:00,43.4,14.7,29.85,WNW,298,3.9,6.7,31,0.00,,,0.00,WUHU216HW,2013-03-21 18:29:00,
2013-03-21 14:31:00,43.7,15.7,29.86,NNW,338,3.4,5.4,32,0.00,,,0.00,WUHU216HW,2013-03-21 18:31:00,
2013-03-21 14:34:00,43.7,14.9,29.86,North,0,4.5,6.3,31,0.00,,,0.00,WUHU216HW,2013-03-21 18:34:00,
2013-03-21 14:35:00,43.7,15.7,29.85,North,3,4.3,6.3,32,0.00,,,0.00,WUHU216HW,2013-03-21 18:35:00,
2013-03-21 14:36:00,43.6,14.1,29.86,NW,315,5.4,6.3,30,0.00,,,0.00,WUHU216HW,2013-03-21 18:36:00,
2013-03-21 14:39:00,43.6,13.2,29.85,NNE,20,3.6,6.3,29,0.00,,,0.00,WUHU216HW,2013-03-21 18:39:00,
2013-03-21 14:40:00,43.7,14.3,29.85,NNE,14,3.7,6.3,30,0.00,,,0.00,WUHU216HW,2013-03-21 18:40:00,
2013-03-21 14:43:00,43.9,16.5,29.85,WNW,295,3.3,6.3,33,0.00,,,0.00,WUHU216HW,2013-03-21 18:43:00,
2013-03-21 14:45:00,44.1,15.3,29.85,NNW,328,4.1,6.0,31,0.00,,,0.00,WUHU216HW,2013-03-21 18:45:00,
2013-03-21 14:50:00,44.6,16.5,29.85,NW,315,3.4,6.3,32,0.00,,,0.00,WUHU216HW,2013-03-21 18:50:00,
2013-03-21 14:51:00,44.6,16.5,29.85,WSW,248,3.4,6.3,32,0.00,,,0.00,WUHU216HW,2013-03-21 18:51:00,
2013-03-21 14:55:00,45.2,16.3,29.85,East,90,2.9,6.3,31,0.00,,,0.00,WUHU216HW,2013-03-21 18:55:00,
2013-03-21 14:56:00,45.2,16.3,29.85,North,0,4.7,6.3,31,0.00,,,0.00,WUHU216HW,2013-03-21 18:56:00,
2013-03-21 14:57:00,45.2,16.3,29.85,NNE,23,6.0,6.0,31,0.00,,,0.00,WUHU216HW,2013-03-21 18:57:00,
2013-03-21 14:58:00,44.6,15.1,29.85,West,270,5.8,6.3,30,0.00,,,0.00,WUHU216HW,2013-03-21 18:58:00,
2013-03-21 15:02:00,44.6,14.2,29.85,NNW,328,5.2,7.6,29,0.00,,,0.00,WUHU216HW,2013-03-21 19:02:00,
2013-03-21 15:03:00,44.5,14.9,29.85,NNW,327,4.5,7.6,30,0.00,,,0.00,WUHU216HW,2013-03-21 19:03:00,
2013-03-21 15:04:00,44.5,14.0,29.85,NNW,340,4.8,7.6,29,0.00,,,0.00,WUHU216HW,2013-03-21 19:04:00,
2013-03-21 15:08:00,44.5,14.9,29.85,NW,326,4.9,9.2,30,0.00,,,0.00,WUHU216HW,2013-03-21 19:08:00,
2013-03-21 15:09:00,44.5,15.7,29.85,WNW,287,2.5,9.2,31,0.00,,,0.00,WUHU216HW,2013-03-21 19:09:00,
2013-03-21 15:10:00,44.6,15.1,29.85,West,270,4.7,9.2,30,0.00,,,0.00,WUHU216HW,2013-03-21 19:10:00,
2013-03-21 15:13:00,45.0,16.7,29.84,NNW,338,5.6,9.2,32,0.00,,,0.00,WUHU216HW,2013-03-21 19:13:00,
2013-03-21 15:15:00,45.2,15.6,29.84,NNW,333,4.2,6.9,30,0.00,,,0.00,WUHU216HW,2013-03-21 19:15:00,
2013-03-21 15:17:00,45.4,16.5,29.84,WNW,290,3.1,5.6,31,0.00,,,0.00,WUHU216HW,2013-03-21 19:17:00,
2013-03-21 15:18:00,45.5,17.3,29.85,NW,315,2.5,5.6,32,0.00,,,0.00,WUHU216HW,2013-03-21 19:18:00,
2013-03-21 15:20:00,45.7,16.1,29.84,WNW,295,4.8,6.5,30,0.00,,,0.00,WUHU216HW,2013-03-21 19:20:00,
2013-03-21 15:22:00,45.7,15.2,29.84,North,0,11.2,11.2,29,0.00,,,0.00,WUHU216HW,2013-03-21 19:22:00,
2013-03-21 15:24:00,45.4,15.8,29.84,SE,143,3.8,11.2,30,0.00,,,0.00,WUHU216HW,2013-03-21 19:24:00,
2013-03-21 15:25:00,45.4,14.9,29.84,NNW,338,7.6,11.2,29,0.00,,,0.00,WUHU216HW,2013-03-21 19:25:00,
2013-03-21 15:27:00,45.5,16.6,29.84,NW,308,6.6,11.2,31,0.00,,,0.00,WUHU216HW,2013-03-21 19:27:00,
2013-03-21 15:29:00,45.7,16.1,29.84,WNW,293,5.4,11.2,30,0.00,,,0.00,WUHU216HW,2013-03-21 19:29:00,
2013-03-21 15:31:00,45.9,15.3,29.84,WNW,288,4.3,11.2,29,0.00,,,0.00,WUHU216HW,2013-03-21 19:31:00,
2013-03-21 15:32:00,45.7,15.2,29.84,WNW,293,5.4,8.9,29,0.00,,,0.00,WUHU216HW,2013-03-21 19:32:00,
2013-03-21 15:35:00,45.5,15.9,29.84,NW,315,6.9,8.9,30,0.00,,,0.00,WUHU216HW,2013-03-21 19:35:00,
2013-03-21 15:37:00,45.7,17.5,29.84,NW,315,3.4,6.9,32,0.00,,,0.00,WUHU216HW,2013-03-21 19:37:00,
2013-03-21 15:38:00,45.7,17.5,29.84,WNW,295,2.9,6.9,32,0.00,,,0.00,WUHU216HW,2013-03-21 19:38:00,
2013-03-21 15:40:00,46.1,17.1,29.84,WNW,293,3.6,6.9,31,0.00,,,0.00,WUHU216HW,2013-03-21 19:40:00,
2013-03-21 15:43:00,46.6,17.6,29.83,NNW,338,4.0,6.9,31,0.00,,,0.00,WUHU216HW,2013-03-21 19:43:00,
2013-03-21 15:45:00,47.0,18.5,29.84,NW,315,4.0,5.8,32,0.00,,,0.00,WUHU216HW,2013-03-21 19:45:00,
2013-03-21 15:46:00,47.2,17.4,29.84,NW,315,4.0,5.8,30,0.00,,,0.00,WUHU216HW,2013-03-21 19:46:00,
2013-03-21 15:48:00,46.8,16.1,29.84,NW,315,6.7,6.7,29,0.00,,,0.00,WUHU216HW,2013-03-21 19:48:00,
2013-03-21 15:49:00,46.6,16.9,29.84,NNW,338,4.5,6.7,30,0.00,,,0.00,WUHU216HW,2013-03-21 19:49:00,
2013-03-21 15:51:00,46.3,14.8,29.84,NNW,343,4.7,6.7,28,0.00,,,0.00,WUHU216HW,2013-03-21 19:51:00,
2013-03-21 15:52:00,46.1,16.4,29.83,North,0,4.5,6.7,30,0.00,,,0.00,WUHU216HW,2013-03-21 19:52:00,
2013-03-21 15:53:00,46.1,16.4,29.83,North,356,3.5,6.7,30,0.00,,,0.00,WUHU216HW,2013-03-21 19:53:00,
2013-03-21 15:54:00,46.1,17.7,29.83,NW,315,5.8,6.7,32,0.00,,,0.00,WUHU216HW,2013-03-21 19:54:00,
2013-03-21 15:57:00,46.1,14.6,29.83,NW,310,6.9,9.6,28,0.00,,,0.00,WUHU216HW,2013-03-21 19:57:00,
2013-03-21 15:58:00,45.9,15.3,29.83,NW,312,5.6,9.6,29,0.00,,,0.00,WUHU216HW,2013-03-21 19:58:00,
2013-03-21 15:59:00,45.9,16.3,29.83,NW,320,4.4,9.6,30,0.00,,,0.00,WUHU216HW,2013-03-21 19:59:00,
2013-03-21 16:02:00,45.7,16.1,29.83,NNW,340,4.8,9.6,30,0.00,,,0.00,WUHU216HW,2013-03-21 20:02:00,
2013-03-21 16:03:00,45.9,16.9,29.83,NNE,23,4.0,9.6,31,0.00,,,0.00,WUHU216HW,2013-03-21 20:03:00,
2013-03-21 16:04:00,45.9,16.9,29.83,NNE,23,4.0,9.6,31,0.00,,,0.00,WUHU216HW,2013-03-21 20:04:00,
2013-03-21 16:05:00,46.1,17.7,29.83,West,270,4.9,9.6,32,0.00,,,0.00,WUHU216HW,2013-03-21 20:05:00,
2013-03-21 16:08:00,46.1,14.6,29.83,NNW,334,3.6,7.4,28,0.00,,,0.00,WUHU216HW,2013-03-21 20:08:00,
2013-03-21 16:09:00,46.1,15.5,29.83,NW,320,3.4,7.4,29,0.00,,,0.00,WUHU216HW,2013-03-21 20:09:00,
2013-03-21 16:10:00,46.1,16.4,29.83,NW,319,3.3,7.4,30,0.00,,,0.00,WUHU216HW,2013-03-21 20:10:00,
2013-03-21 16:12:00,46.3,17.3,29.83,NW,305,2.1,6.9,31,0.00,,,0.00,WUHU216HW,2013-03-21 20:12:00,
2013-03-21 16:13:00,46.3,17.3,29.83,NW,308,2.8,6.9,31,0.00,,,0.00,WUHU216HW,2013-03-21 20:13:00,
2013-03-21 16:15:00,46.4,16.7,29.83,NW,315,6.3,6.3,30,0.00,,,0.00,WUHU216HW,2013-03-21 20:15:00,
2013-03-21 16:18:00,46.8,17.7,29.83,NNE,23,3.6,6.3,31,0.00,,,0.00,WUHU216HW,2013-03-21 20:18:00,
2013-03-21 16:19:00,47.0,17.9,29.83,West,270,3.8,6.3,31,0.00,,,0.00,WUHU216HW,2013-03-21 20:19:00,
2013-03-21 16:20:00,47.2,18.1,29.83,NW,315,3.8,6.3,31,0.00,,,0.00,WUHU216HW,2013-03-21 20:20:00,
2013-03-21 16:21:00,47.2,17.4,29.83,NNW,338,5.1,6.3,30,0.00,,,0.00,WUHU216HW,2013-03-21 20:21:00,
2013-03-21 16:23:00,47.0,16.3,29.83,NNW,343,4.3,6.7,29,0.00,,,0.00,WUHU216HW,2013-03-21 20:23:00,
2013-03-21 16:24:00,46.8,17.1,29.82,WSW,248,4.0,6.7,30,0.00,,,0.00,WUHU216HW,2013-03-21 20:24:00,
2013-03-21 16:27:00,46.6,16.0,29.82,NNW,338,5.4,6.7,29,0.00,,,0.00,WUHU216HW,2013-03-21 20:27:00,
2013-03-21 16:28:00,46.4,15.9,29.82,NNW,336,3.8,6.7,29,0.00,,,0.00,WUHU216HW,2013-03-21 20:28:00,
2013-03-21 16:29:00,46.4,17.4,29.82,NW,323,3.7,6.7,31,0.00,,,0.00,WUHU216HW,2013-03-21 20:29:00,
2013-03-21 16:32:00,46.6,16.0,29.82,NNW,332,2.6,6.7,29,0.00,,,0.00,WUHU216HW,2013-03-21 20:32:00,
2013-03-21 16:33:00,46.6,15.0,29.82,NW,315,4.7,6.7,28,0.00,,,0.00,WUHU216HW,2013-03-21 20:33:00,
2013-03-21 16:34:00,46.6,16.0,29.82,NW,315,3.8,6.7,29,0.00,,,0.00,WUHU216HW,2013-03-21 20:34:00,
2013-03-21 16:36:00,46.4,15.9,29.82,NNE,23,5.6,6.7,29,0.00,,,0.00,WUHU216HW,2013-03-21 20:36:00,
2013-03-21 16:38:00,46.1,15.5,29.82,NW,315,3.8,6.7,29,0.00,,,0.00,WUHU216HW,2013-03-21 20:38:00,
2013-03-21 16:39:00,46.1,15.5,29.82,NW,315,4.0,6.7,29,0.00,,,0.00,WUHU216HW,2013-03-21 20:39:00,
2013-03-21 16:41:00,46.1,17.1,29.82,NNE,23,6.5,6.5,31,0.00,,,0.00,WUHU216HW,2013-03-21 20:41:00,
2013-03-21 16:42:00,46.1,16.4,29.82,North,10,5.3,7.4,30,0.00,,,0.00,WUHU216HW,2013-03-21 20:42:00,
2013-03-21 16:43:00,46.1,16.4,29.82,North,355,3.9,7.4,30,0.00,,,0.00,WUHU216HW,2013-03-21 20:43:00,
2013-03-21 16:44:00,46.1,17.1,29.82,North,352,3.4,7.4,31,0.00,,,0.00,WUHU216HW,2013-03-21 20:44:00,
2013-03-21 16:47:00,46.4,15.9,29.82,West,270,7.2,7.4,29,0.00,,,0.00,WUHU216HW,2013-03-21 20:47:00,
2013-03-21 16:48:00,46.4,15.9,29.82,West,275,3.4,7.4,29,0.00,,,0.00,WUHU216HW,2013-03-21 20:48:00,
2013-03-21 16:49:00,46.4,16.7,29.82,West,266,3.2,7.4,30,0.00,,,0.00,WUHU216HW,2013-03-21 20:49:00,
2013-03-21 16:50:00,46.4,16.7,29.82,NW,315,2.5,7.4,30,0.00,,,0.00,WUHU216HW,2013-03-21 20:50:00,
2013-03-21 16:53:00,46.4,16.7,29.82,West,273,2.5,7.2,30,0.00,,,0.00,WUHU216HW,2013-03-21 20:53:00,
2013-03-21 16:55:00,46.4,16.7,29.82,NW,315,4.7,7.2,30,0.00,,,0.00,WUHU216HW,2013-03-21 20:55:00,
2013-03-21 16:56:00,46.4,16.7,29.82,NNW,338,7.6,7.6,30,0.00,,,0.00,WUHU216HW,2013-03-21 20:56:00,
2013-03-21 16:58:00,46.6,16.0,29.82,NW,315,6.7,8.1,29,0.00,,,0.00,WUHU216HW,2013-03-21 20:58:00,
2013-03-21 16:59:00,46.4,15.9,29.82,NNW,340,6.0,8.1,29,0.00,,,0.00,WUHU216HW,2013-03-21 20:59:00,
2013-03-21 17:00:00,46.4,15.0,29.82,NNW,338,5.4,8.1,28,0.00,,,0.00,WUHU216HW,2013-03-21 21:00:00,
2013-03-21 17:01:00,46.4,15.9,29.82,NNW,345,3.9,8.1,29,0.00,,,0.00,WUHU216HW,2013-03-21 21:01:00,
2013-03-21 17:04:00,46.4,15.9,29.82,North,0,4.0,8.1,29,0.00,,,0.00,WUHU216HW,2013-03-21 21:04:00,
2013-03-21 17:05:00,46.4,16.7,29.82,NNW,338,4.7,8.1,30,0.00,,,0.00,WUHU216HW,2013-03-21 21:05:00,
2013-03-21 17:07:00,46.3,16.6,29.82,North,0,4.0,8.1,30,0.00,,,0.00,WUHU216HW,2013-03-21 21:07:00,
2013-03-21 17:08:00,46.3,16.6,29.82,North,357,2.6,8.1,30,0.00,,,0.00,WUHU216HW,2013-03-21 21:08:00,
2013-03-21 17:09:00,46.3,17.3,29.81,WSW,248,2.7,6.3,31,0.00,,,0.00,WUHU216HW,2013-03-21 21:09:00,
2013-03-21 17:11:00,46.4,18.1,29.81,WSW,248,3.1,4.7,32,0.00,,,0.00,WUHU216HW,2013-03-21 21:11:00,
2013-03-21 17:13:00,46.6,16.9,29.81,NNW,344,3.9,4.9,30,0.00,,,0.00,WUHU216HW,2013-03-21 21:13:00,
2013-03-21 17:14:00,46.6,16.9,29.81,North,352,4.1,6.3,30,0.00,,,0.00,WUHU216HW,2013-03-21 21:14:00,
2013-03-21 17:15:00,46.6,16.9,29.81,North,353,3.4,6.3,30,0.00,,,0.00,WUHU216HW,2013-03-21 21:15:00,
2013-03-21 17:16:00,46.6,16.9,29.81,North,351,2.6,6.3,30,0.00,,,0.00,WUHU216HW,2013-03-21 21:16:00,
2013-03-21 17:18:00,46.3,17.3,29.81,NNW,348,4.3,6.3,31,0.00,,,0.00,WUHU216HW,2013-03-21 21:18:00,
2013-03-21 17:19:00,46.3,17.3,29.81,NW,325,3.4,6.3,31,0.00,,,0.00,WUHU216HW,2013-03-21 21:19:00,
2013-03-21 17:20:00,46.3,17.9,29.81,WNW,293,3.4,6.3,32,0.00,,,0.00,WUHU216HW,2013-03-21 21:20:00,
2013-03-21 17:21:00,46.3,17.9,29.81,NW,320,3.2,6.3,32,0.00,,,0.00,WUHU216HW,2013-03-21 21:21:00,
2013-03-21 17:23:00,46.6,17.6,29.81,West,272,4.0,6.3,31,0.00,,,0.00,WUHU216HW,2013-03-21 21:23:00,
2013-03-21 17:24:00,46.8,17.7,29.81,NW,304,3.1,5.6,31,0.00,,,0.00,WUHU216HW,2013-03-21 21:24:00,
2013-03-21 17:26:00,46.8,17.7,29.81,WNW,303,2.2,5.6,31,0.00,,,0.00,WUHU216HW,2013-03-21 21:26:00,
2013-03-21 17:29:00,46.8,17.7,29.81,WNW,287,4.9,6.9,31,0.00,,,0.00,WUHU216HW,2013-03-21 21:29:00,
2013-03-21 17:30:00,46.8,16.1,29.81,NW,315,5.4,6.9,29,0.00,,,0.00,WUHU216HW,2013-03-21 21:30:00,
2013-03-21 17:31:00,46.8,16.1,29.81,NW,314,4.1,6.9,29,0.00,,,0.00,WUHU216HW,2013-03-21 21:31:00,
2013-03-21 17:34:00,46.4,16.7,29.81,NNW,347,3.0,6.9,30,0.00,,,0.00,WUHU216HW,2013-03-21 21:34:00,
2013-03-21 17:35:00,46.4,16.7,29.81,NNW,338,1.8,6.9,30,0.00,,,0.00,WUHU216HW,2013-03-21 21:35:00,
2013-03-21 17:37:00,46.4,15.9,29.81,NNW,329,2.3,6.9,29,0.00,,,0.00,WUHU216HW,2013-03-21 21:37:00,
2013-03-21 17:39:00,46.4,17.4,29.81,NW,308,2.1,5.4,31,0.00,,,0.00,WUHU216HW,2013-03-21 21:39:00,
2013-03-21 17:40:00,46.6,17.6,29.81,NNW,327,1.7,5.4,31,0.00,,,0.00,WUHU216HW,2013-03-21 21:40:00,
2013-03-21 17:42:00,46.6,16.9,29.81,WNW,293,4.7,5.4,30,0.00,,,0.00,WUHU216HW,2013-03-21 21:42:00,
2013-03-21 17:45:00,46.4,17.4,29.81,WSW,248,1.8,4.7,31,0.00,,,0.00,WUHU216HW,2013-03-21 21:45:00,
2013-03-21 17:46:00,46.4,17.4,29.81,West,262,1.3,4.7,31,0.00,,,0.00,WUHU216HW,2013-03-21 21:46:00,
2013-03-21 17:48:00,46.4,18.1,29.81,West,280,4.3,6.9,32,0.00,,,0.00,WUHU216HW,2013-03-21 21:48:00,
2013-03-21 17:51:00,46.8,18.4,29.81,WNW,301,2.8,6.9,32,0.00,,,0.00,WUHU216HW,2013-03-21 21:51:00,
2013-03-21 17:52:00,46.8,17.7,29.81,WNW,293,2.7,6.9,31,0.00,,,0.00,WUHU216HW,2013-03-21 21:52:00,
2013-03-21 17:54:00,46.4,17.4,29.81,NW,315,4.0,6.9,31,0.00,,,0.00,WUHU216HW,2013-03-21 21:54:00,
2013-03-21 17:57:00,46.4,16.7,29.81,NW,315,3.8,6.9,30,0.00,,,0.00,WUHU216HW,2013-03-21 21:57:00,
2013-03-21 17:58:00,46.4,17.4,29.81,NNW,338,3.6,6.0,31,0.00,,,0.00,WUHU216HW,2013-03-21 21:58:00,
2013-03-21 17:59:00,46.4,16.7,29.81,NNW,338,3.2,6.0,30,0.00,,,0.00,WUHU216HW,2013-03-21 21:59:00,
2013-03-21 18:02:00,46.1,16.4,29.80,North,356,4.5,6.0,30,0.00,,,0.00,WUHU216HW,2013-03-21 22:02:00,
2013-03-21 18:03:00,46.1,15.5,29.80,NNW,346,4.4,6.0,29,0.00,,,0.00,WUHU216HW,2013-03-21 22:03:00,
2013-03-21 18:05:00,45.7,16.1,29.80,NNW,333,4.3,6.0,30,0.00,,,0.00,WUHU216HW,2013-03-21 22:05:00,
2013-03-21 18:07:00,45.7,16.1,29.80,NNW,338,3.1,6.0,30,0.00,,,0.00,WUHU216HW,2013-03-21 22:07:00,
2013-03-21 18:09:00,45.5,16.6,29.80,NNW,347,2.5,6.0,31,0.00,,,0.00,WUHU216HW,2013-03-21 22:09:00,
2013-03-21 18:11:00,45.5,16.6,29.80,NNW,333,2.1,6.0,31,0.00,,,0.00,WUHU216HW,2013-03-21 22:11:00,
2013-03-21 18:12:00,45.5,16.6,29.81,NNW,338,4.3,5.8,31,0.00,,,0.00,WUHU216HW,2013-03-21 22:12:00,
2013-03-21 18:15:00,45.4,16.5,29.81,NW,323,3.8,6.3,31,0.00,,,0.00,WUHU216HW,2013-03-21 22:15:00,
2013-03-21 18:16:00,45.4,16.5,29.81,NNW,331,3.2,6.3,31,0.00,,,0.00,WUHU216HW,2013-03-21 22:16:00,
2013-03-21 18:18:00,45.5,17.3,29.81,NW,315,2.2,6.3,32,0.00,,,0.00,WUHU216HW,2013-03-21 22:18:00,
2013-03-21 18:19:00,45.5,17.3,29.81,NNW,329,1.4,6.3,32,0.00,,,0.00,WUHU216HW,2013-03-21 22:19:00,
2013-03-21 18:20:00,45.5,17.3,29.81,WSW,248,1.6,6.3,32,0.00,,,0.00,WUHU216HW,2013-03-21 22:20:00,
2013-03-21 18:21:00,45.5,17.3,29.80,NNW,338,1.1,6.3,32,0.00,,,0.00,WUHU216HW,2013-03-21 22:21:00,
2013-03-21 18:23:00,45.5,16.6,29.80,NNW,338,2.5,5.4,31,0.00,,,0.00,WUHU216HW,2013-03-21 22:23:00,
2013-03-21 18:25:00,45.5,17.3,29.80,NNW,338,3.4,4.5,32,0.00,,,0.00,WUHU216HW,2013-03-21 22:25:00,
2013-03-21 18:27:00,45.5,17.3,29.80,WSW,248,4.0,4.5,32,0.00,,,0.00,WUHU216HW,2013-03-21 22:27:00,
2013-03-21 18:29:00,45.4,17.1,29.80,NW,315,3.4,4.5,32,0.00,,,0.00,WUHU216HW,2013-03-21 22:29:00,
2013-03-21 18:30:00,45.4,16.5,29.80,NW,326,2.7,4.5,31,0.00,,,0.00,WUHU216HW,2013-03-21 22:30:00,
2013-03-21 18:31:00,45.4,17.1,29.80,NNW,331,1.9,4.5,32,0.00,,,0.00,WUHU216HW,2013-03-21 22:31:00,
2013-03-21 18:32:00,45.2,16.3,29.80,NNE,23,2.0,4.5,31,0.00,,,0.00,WUHU216HW,2013-03-21 22:32:00,
2013-03-21 18:35:00,45.0,16.1,29.80,NW,326,1.9,4.0,31,0.00,,,0.00,WUHU216HW,2013-03-21 22:35:00,
2013-03-21 18:36:00,45.0,16.7,29.80,NNW,338,1.8,4.0,32,0.00,,,0.00,WUHU216HW,2013-03-21 22:36:00,
2013-03-21 18:37:00,45.0,16.7,29.80,NW,314,2.4,4.0,32,0.00,,,0.00,WUHU216HW,2013-03-21 22:37:00,
2013-03-21 18:38:00,45.0,16.7,29.80,WNW,293,2.9,3.4,32,0.00,,,0.00,WUHU216HW,2013-03-21 22:38:00,
2013-03-21 18:41:00,45.0,16.1,29.80,North,0,2.5,3.4,31,0.00,,,0.00,WUHU216HW,2013-03-21 22:41:00,
2013-03-21 18:42:00,44.8,15.9,29.80,NNW,334,3.1,6.3,31,0.00,,,0.00,WUHU216HW,2013-03-21 22:42:00,
2013-03-21 18:43:00,44.8,16.7,29.80,NW,320,2.8,6.3,32,0.00,,,0.00,WUHU216HW,2013-03-21 22:43:00,
2013-03-21 18:44:00,44.6,15.8,29.80,WNW,293,4.0,6.3,31,0.00,,,0.00,WUHU216HW,2013-03-21 22:44:00,
2013-03-21 18:46:00,44.6,15.8,29.80,WNW,299,2.6,6.3,31,0.00,,,0.00,WUHU216HW,2013-03-21 22:46:00,
2013-03-21 18:48:00,44.5,16.3,29.80,West,270,1.8,6.3,32,0.00,,,0.00,WUHU216HW,2013-03-21 22:48:00,
2013-03-21 18:49:00,44.3,16.1,29.80,NW,309,1.6,6.3,32,0.00,,,0.00,WUHU216HW,2013-03-21 22:49:00,
2013-03-21 18:53:00,44.3,16.1,29.80,NW,309,1.8,4.3,32,0.00,,,0.00,WUHU216HW,2013-03-21 22:53:00,
2013-03-21 18:55:00,44.3,16.1,29.80,NNW,345,1.3,2.9,32,0.00,,,0.00,WUHU216HW,2013-03-21 22:55:00,
2013-03-21 18:58:00,43.9,15.9,29.80,NNW,331,2.3,3.1,32,0.00,,,0.00,WUHU216HW,2013-03-21 22:58:00,
2013-03-21 18:59:00,43.9,15.9,29.80,NNW,332,2.2,3.1,32,0.00,,,0.00,WUHU216HW,2013-03-21 22:59:00,
2013-03-21 19:00:00,43.9,16.5,29.80,NW,315,2.5,3.1,33,0.00,,,0.00,WUHU216HW,2013-03-21 23:00:00,
2013-03-21 19:04:00,43.7,15.7,29.80,WNW,293,4.5,4.5,32,0.00,,,0.00,WUHU216HW,2013-03-21 23:04:00,
2013-03-21 19:05:00,43.7,15.7,29.80,WNW,299,3.1,4.5,32,0.00,,,0.00,WUHU216HW,2013-03-21 23:05:00,
2013-03-21 19:09:00,43.6,15.5,29.80,NW,315,3.1,4.5,32,0.00,,,0.00,WUHU216HW,2013-03-21 23:09:00,
2013-03-21 19:10:00,43.6,15.5,29.80,NW,312,2.9,4.5,32,0.00,,,0.00,WUHU216HW,2013-03-21 23:10:00,
2013-03-21 19:11:00,43.4,15.3,29.80,NW,305,2.8,4.5,32,0.00,,,0.00,WUHU216HW,2013-03-21 23:11:00,
2013-03-21 19:15:00,43.2,15.1,29.80,NW,316,2.4,3.6,32,0.00,,,0.00,WUHU216HW,2013-03-21 23:15:00,
2013-03-21 19:17:00,43.2,15.1,29.80,NW,319,0.7,3.6,32,0.00,,,0.00,WUHU216HW,2013-03-21 23:17:00,
2013-03-21 19:18:00,43.0,14.3,29.80,NNW,338,1.8,3.6,31,0.00,,,0.00,WUHU216HW,2013-03-21 23:18:00,
2013-03-21 19:20:00,42.8,14.9,29.80,WSW,248,0.9,3.6,32,0.00,,,0.00,WUHU216HW,2013-03-21 23:20:00,
2013-03-21 19:22:00,42.8,14.9,29.80,WSW,254,1.0,3.6,32,0.00,,,0.00,WUHU216HW,2013-03-21 23:22:00,
2013-03-21 19:24:00,42.7,15.4,29.80,NW,311,0.6,2.9,33,0.00,,,0.00,WUHU216HW,2013-03-21 23:24:00,
2013-03-21 19:26:00,42.5,15.2,29.80,NNW,338,1.1,2.2,33,0.00,,,0.00,WUHU216HW,2013-03-21 23:26:00,
2013-03-21 19:27:00,42.3,15.0,29.80,NW,323,1.4,2.2,33,0.00,,,0.00,WUHU216HW,2013-03-21 23:27:00,
2013-03-21 19:29:00,42.3,15.0,29.80,NW,306,1.0,2.0,33,0.00,,,0.00,WUHU216HW,2013-03-21 23:29:00,
2013-03-21 19:31:00,42.1,15.0,29.80,NW,324,0.5,2.0,33,0.00,,,0.00,WUHU216HW,2013-03-21 23:31:00,
2013-03-21 19:32:00,42.1,15.0,29.80,WNW,293,0.9,2.0,33,0.00,,,0.00,WUHU216HW,2013-03-21 23:32:00,
2013-03-21 19:33:00,41.9,15.4,29.80,WNW,295,0.8,2.0,34,0.00,,,0.00,WUHU216HW,2013-03-21 23:33:00,
2013-03-21 19:34:00,41.9,16.0,29.80,NW,322,0.8,2.0,35,0.00,,,0.00,WUHU216HW,2013-03-21 23:34:00,
2013-03-21 19:37:00,41.8,15.9,29.80,NW,305,1.1,3.4,35,0.00,,,0.00,WUHU216HW,2013-03-21 23:37:00,
2013-03-21 19:39:00,41.4,15.6,29.80,WNW,293,1.8,3.4,35,0.00,,,0.00,WUHU216HW,2013-03-21 23:39:00,
2013-03-21 19:40:00,41.4,15.6,29.80,NW,307,1.3,3.4,35,0.00,,,0.00,WUHU216HW,2013-03-21 23:40:00,
2013-03-21 19:42:00,41.4,15.6,29.80,NW,313,1.1,3.4,35,0.00,,,0.00,WUHU216HW,2013-03-21 23:42:00,
2013-03-21 19:44:00,41.2,15.5,29.80,WNW,299,0.6,3.4,35,0.00,,,0.00,WUHU216HW,2013-03-21 23:44:00,
2013-03-21 19:45:00,41.0,15.3,29.80,WNW,300,0.7,1.8,35,0.00,,,0.00,WUHU216HW,2013-03-21 23:45:00,
2013-03-21 19:47:00,40.9,15.8,29.80,NW,315,1.1,1.8,36,0.00,,,0.00,WUHU216HW,2013-03-21 23:47:00,
2013-03-21 19:48:00,40.9,15.8,29.81,WNW,286,1.2,1.8,36,0.00,,,0.00,WUHU216HW,2013-03-21 23:48:00,
2013-03-21 19:50:00,40.7,15.7,29.81,West,270,1.1,1.8,36,0.00,,,0.00,WUHU216HW,2013-03-21 23:50:00,
2013-03-21 19:52:00,40.3,15.9,29.81,West,270,0.5,1.6,37,0.00,,,0.00,WUHU216HW,2013-03-21 23:52:00,
2013-03-21 19:55:00,40.0,16.3,29.81,WNW,293,0.5,1.6,38,0.00,,,0.00,WUHU216HW,2013-03-21 23:55:00,
2013-03-21 19:57:00,39.6,15.9,29.81,WNW,293,0.4,1.6,38,0.00,,,0.00,WUHU216HW,2013-03-21 23:57:00,
2013-03-21 20:01:00,39.2,16.3,29.81,WNW,293,0.7,0.9,39,0.00,,,0.00,WUHU216HW,2013-03-22 00:01:00,
2013-03-21 20:02:00,39.2,16.3,29.81,WNW,293,0.9,0.9,39,0.00,,,0.00,WUHU216HW,2013-03-22 00:02:00,
2013-03-21 20:03:00,39.1,15.5,29.81,WNW,293,0.6,1.1,38,0.00,,,0.00,WUHU216HW,2013-03-22 00:03:00,
2013-03-21 20:06:00,38.9,15.9,29.81,West,270,0.8,1.1,39,0.00,,,0.00,WUHU216HW,2013-03-22 00:06:00,
2013-03-21 20:07:00,38.7,15.8,29.81,West,270,0.4,1.1,39,0.00,,,0.00,WUHU216HW,2013-03-22 00:07:00,
2013-03-21 20:08:00,38.5,15.7,29.81,NW,315,1.1,1.1,39,0.00,,,0.00,WUHU216HW,2013-03-22 00:08:00,
2013-03-21 20:11:00,38.5,15.7,29.81,WNW,293,0.9,1.1,39,0.00,,,0.00,WUHU216HW,2013-03-22 00:11:00,
2013-03-21 20:13:00,38.3,15.5,29.81,WNW,293,0.5,1.1,39,0.00,,,0.00,WUHU216HW,2013-03-22 00:13:00,
2013-03-21 20:14:00,38.2,15.3,29.81,NW,315,1.1,1.1,39,0.00,,,0.00,WUHU216HW,2013-03-22 00:14:00,
2013-03-21 20:16:00,38.2,15.3,29.81,NNW,328,0.7,1.3,39,0.00,,,0.00,WUHU216HW,2013-03-22 00:16:00,
2013-03-21 20:18:00,38.2,15.3,29.81,WNW,293,0.6,1.3,39,0.00,,,0.00,WUHU216HW,2013-03-22 00:18:00,
2013-03-21 20:19:00,38.0,15.1,29.81,WNW,293,0.3,1.3,39,0.00,,,0.00,WUHU216HW,2013-03-22 00:19:00,
2013-03-21 20:20:00,38.0,15.1,29.81,WNW,293,0.0,1.3,39,0.00,,,0.00,WUHU216HW,2013-03-22 00:20:00,
2013-03-21 20:21:00,38.0,15.1,29.81,NNW,338,0.2,1.3,39,0.00,,,0.00,WUHU216HW,2013-03-22 00:21:00,
2013-03-21 20:25:00,37.8,15.7,29.81,NNW,338,0.0,0.9,40,0.00,,,0.00,WUHU216HW,2013-03-22 00:25:00,
2013-03-21 20:27:00,37.4,15.3,29.81,NNW,338,0.0,0.9,40,0.00,,,0.00,WUHU216HW,2013-03-22 00:27:00,
2013-03-21 20:30:00,37.1,15.5,29.81,ENE,68,0.0,0.2,41,0.00,,,0.00,WUHU216HW,2013-03-22 00:30:00,
2013-03-21 20:33:00,37.1,15.5,29.81,East,90,0.0,0.0,41,0.00,,,0.00,WUHU216HW,2013-03-22 00:33:00,
2013-03-21 20:35:00,36.9,15.8,29.82,East,90,0.8,1.1,42,0.00,,,0.00,WUHU216HW,2013-03-22 00:35:00,
2013-03-21 20:36:00,36.9,15.8,29.82,East,90,0.7,1.1,42,0.00,,,0.00,WUHU216HW,2013-03-22 00:36:00,
2013-03-21 20:37:00,36.7,15.7,29.82,East,90,0.4,1.1,42,0.00,,,0.00,WUHU216HW,2013-03-22 00:37:00,
2013-03-21 20:39:00,36.7,15.7,29.82,East,90,0.3,1.1,42,0.00,,,0.00,WUHU216HW,2013-03-22 00:39:00,
2013-03-21 20:42:00,36.5,15.6,29.82,East,90,0.0,1.1,42,0.00,,,0.00,WUHU216HW,2013-03-22 00:42:00,
2013-03-21 20:44:00,36.4,15.4,29.82,East,90,1.1,1.1,42,0.00,,,0.00,WUHU216HW,2013-03-22 00:44:00,
2013-03-21 20:47:00,36.4,15.4,29.83,East,90,1.0,1.3,42,0.00,,,0.00,WUHU216HW,2013-03-22 00:47:00,
2013-03-21 20:48:00,36.4,15.4,29.83,East,90,0.9,1.3,42,0.00,,,0.00,WUHU216HW,2013-03-22 00:48:00,
2013-03-21 20:49:00,36.4,15.4,29.82,East,90,1.1,1.3,42,0.00,,,0.00,WUHU216HW,2013-03-22 00:49:00,
2013-03-21 20:52:00,36.2,15.8,29.82,East,90,0.7,1.3,43,0.00,,,0.00,WUHU216HW,2013-03-22 00:52:00,
2013-03-21 20:53:00,36.2,15.8,29.82,East,90,0.5,1.3,43,0.00,,,0.00,WUHU216HW,2013-03-22 00:53:00,
2013-03-21 20:55:00,36.0,15.6,29.82,East,90,0.4,1.1,43,0.00,,,0.00,WUHU216HW,2013-03-22 00:55:00,
2013-03-21 20:57:00,36.0,15.0,29.82,East,90,0.4,1.1,42,0.00,,,0.00,WUHU216HW,2013-03-22 00:57:00,
2013-03-21 20:58:00,35.8,14.9,29.83,East,90,0.4,1.1,42,0.00,,,0.00,WUHU216HW,2013-03-22 00:58:00,
2013-03-21 21:00:00,35.6,14.8,29.83,East,90,0.9,0.9,42,0.00,,,0.00,WUHU216HW,2013-03-22 01:00:00,
2013-03-21 21:02:00,35.6,14.8,29.83,WSW,248,1.1,1.3,42,0.00,,,0.00,WUHU216HW,2013-03-22 01:02:00,
2013-03-21 21:04:00,35.5,15.1,29.83,WSW,248,1.1,1.3,43,0.00,,,0.00,WUHU216HW,2013-03-22 01:04:00,
2013-03-21 21:05:00,35.5,15.1,29.83,WSW,248,1.1,1.3,43,0.00,,,0.00,WUHU216HW,2013-03-22 01:05:00,
2013-03-21 21:06:00,35.3,15.4,29.83,WSW,248,0.9,1.3,44,0.00,,,0.00,WUHU216HW,2013-03-22 01:06:00,
2013-03-21 21:07:00,35.3,15.4,29.83,WSW,248,0.7,1.3,44,0.00,,,0.00,WUHU216HW,2013-03-22 01:07:00,
2013-03-21 21:10:00,34.9,15.1,29.83,WSW,248,0.0,1.3,44,0.00,,,0.00,WUHU216HW,2013-03-22 01:10:00,
2013-03-21 21:11:00,34.9,14.6,29.83,WSW,248,0.0,1.3,43,0.00,,,0.00,WUHU216HW,2013-03-22 01:11:00,
2013-03-21 21:12:00,34.9,14.6,29.83,WSW,248,0.0,1.1,43,0.00,,,0.00,WUHU216HW,2013-03-22 01:12:00,
2013-03-21 21:13:00,34.7,14.4,29.83,WSW,248,0.0,1.1,43,0.00,,,0.00,WUHU216HW,2013-03-22 01:13:00,
2013-03-21 21:15:00,34.6,14.8,29.83,South,180,1.6,1.6,44,0.00,,,0.00,WUHU216HW,2013-03-22 01:15:00,
2013-03-21 21:17:00,34.6,15.3,29.83,SE,145,1.3,1.6,45,0.00,,,0.00,WUHU216HW,2013-03-22 01:17:00,
2013-03-21 21:18:00,34.6,15.3,29.83,SE,135,1.3,1.6,45,0.00,,,0.00,WUHU216HW,2013-03-22 01:18:00,
2013-03-21 21:21:00,34.4,15.6,29.83,SE,135,0.9,1.6,46,0.00,,,0.00,WUHU216HW,2013-03-22 01:21:00,
2013-03-21 21:22:00,34.4,15.6,29.83,SE,135,0.7,1.6,46,0.00,,,0.00,WUHU216HW,2013-03-22 01:22:00,
2013-03-21 21:23:00,34.4,15.6,29.83,SE,135,0.7,1.6,46,0.00,,,0.00,WUHU216HW,2013-03-22 01:23:00,
2013-03-21 21:24:00,34.2,15.4,29.83,SE,135,0.7,1.6,46,0.00,,,0.00,WUHU216HW,2013-03-22 01:24:00,
2013-03-21 21:27:00,34.2,15.9,29.83,SE,135,0.3,1.6,47,0.00,,,0.00,WUHU216HW,2013-03-22 01:27:00,
2013-03-21 21:28:00,34.2,15.9,29.83,SE,135,0.2,1.6,47,0.00,,,0.00,WUHU216HW,2013-03-22 01:28:00,
2013-03-21 21:29:00,34.0,15.8,29.83,SE,135,0.2,1.1,47,0.00,,,0.00,WUHU216HW,2013-03-22 01:29:00,
2013-03-21 21:31:00,34.0,15.8,29.83,SE,135,0.0,0.9,47,0.00,,,0.00,WUHU216HW,2013-03-22 01:31:00,
2013-03-21 21:33:00,33.8,15.6,29.83,SE,135,0.0,0.9,47,0.00,,,0.00,WUHU216HW,2013-03-22 01:33:00,
2013-03-21 21:35:00,33.8,16.1,29.83,SE,135,0.0,0.7,48,0.00,,,0.00,WUHU216HW,2013-03-22 01:35:00,
2013-03-21 21:36:00,33.8,16.1,29.83,SSE,158,0.0,0.4,48,0.00,,,0.00,WUHU216HW,2013-03-22 01:36:00,
2013-03-21 21:38:00,33.8,16.1,29.83,South,180,0.0,0.0,48,0.00,,,0.00,WUHU216HW,2013-03-22 01:38:00,
2013-03-21 21:39:00,33.8,16.1,29.83,South,180,0.2,0.2,48,0.00,,,0.00,WUHU216HW,2013-03-22 01:39:00,
2013-03-21 21:40:00,33.8,16.1,29.83,South,180,0.8,1.1,48,0.00,,,0.00,WUHU216HW,2013-03-22 01:40:00,
2013-03-21 21:41:00,33.7,15.9,29.84,South,180,0.7,1.1,48,0.00,,,0.00,WUHU216HW,2013-03-22 01:41:00,
2013-03-21 21:44:00,33.5,15.8,29.84,South,180,0.3,1.1,48,0.00,,,0.00,WUHU216HW,2013-03-22 01:44:00,
2013-03-21 21:45:00,33.5,16.3,29.84,South,180,0.2,1.1,49,0.00,,,0.00,WUHU216HW,2013-03-22 01:45:00,
2013-03-21 21:47:00,33.5,16.3,29.84,South,180,0.2,1.1,49,0.00,,,0.00,WUHU216HW,2013-03-22 01:47:00,
2013-03-21 21:49:00,33.5,16.3,29.84,South,180,0.0,1.1,49,0.00,,,0.00,WUHU216HW,2013-03-22 01:49:00,
2013-03-21 21:52:00,33.1,15.9,29.84,South,180,0.0,0.7,49,0.00,,,0.00,WUHU216HW,2013-03-22 01:52:00,
2013-03-21 21:55:00,32.9,16.3,29.84,South,180,0.0,0.2,50,0.00,,,0.00,WUHU216HW,2013-03-22 01:55:00,
2013-03-21 21:57:00,32.8,16.6,29.84,SE,135,1.3,1.3,51,0.00,,,0.00,WUHU216HW,2013-03-22 01:57:00,
2013-03-21 21:59:00,32.9,16.8,29.84,SE,137,1.0,1.3,51,0.00,,,0.00,WUHU216HW,2013-03-22 01:59:00,
2013-03-21 22:00:00,32.8,16.6,29.84,SE,135,1.1,1.3,51,0.00,,,0.00,WUHU216HW,2013-03-22 02:00:00,
2013-03-21 22:03:00,32.8,16.6,29.84,SE,135,0.4,1.3,51,0.00,,,0.00,WUHU216HW,2013-03-22 02:03:00,
2013-03-21 22:04:00,32.8,17.0,29.84,SE,135,0.0,1.3,52,0.00,,,0.00,WUHU216HW,2013-03-22 02:04:00,
2013-03-21 22:05:00,32.8,17.0,29.84,SE,135,0.0,1.3,52,0.00,,,0.00,WUHU216HW,2013-03-22 02:05:00,
2013-03-21 22:09:00,32.6,17.3,29.84,SE,135,0.0,1.1,53,0.00,,,0.00,WUHU216HW,2013-03-22 02:09:00,
2013-03-21 22:10:00,32.6,17.3,29.84,SE,135,0.0,1.1,53,0.00,,,0.00,WUHU216HW,2013-03-22 02:10:00,
2013-03-21 22:14:00,32.4,17.6,29.84,SE,135,0.0,0.0,54,0.00,,,0.00,WUHU216HW,2013-03-22 02:14:00,
2013-03-21 22:15:00,32.4,18.0,29.84,SE,135,0.0,0.0,55,0.00,,,0.00,WUHU216HW,2013-03-22 02:15:00,
2013-03-21 22:16:00,32.4,18.0,29.84,SE,135,0.0,0.0,55,0.00,,,0.00,WUHU216HW,2013-03-22 02:16:00,
2013-03-21 22:19:00,32.4,18.0,29.84,SE,135,0.2,0.2,55,0.00,,,0.00,WUHU216HW,2013-03-22 02:19:00,
2013-03-21 22:21:00,32.4,18.0,29.84,SE,135,0.2,0.2,55,0.00,,,0.00,WUHU216HW,2013-03-22 02:21:00,
2013-03-21 22:22:00,32.4,18.0,29.84,SE,135,0.0,0.2,55,0.00,,,0.00,WUHU216HW,2013-03-22 02:22:00,
2013-03-21 22:25:00,32.4,18.0,29.85,SE,135,0.0,0.2,55,0.00,,,0.00,WUHU216HW,2013-03-22 02:25:00,
2013-03-21 22:26:00,32.4,18.0,29.84,SE,135,0.0,0.2,55,0.00,,,0.00,WUHU216HW,2013-03-22 02:26:00,
2013-03-21 22:29:00,32.4,18.0,29.85,SE,135,0.0,0.2,55,0.00,,,0.00,WUHU216HW,2013-03-22 02:29:00,
2013-03-21 22:31:00,32.2,17.8,29.85,SE,135,0.0,0.0,55,0.00,,,0.00,WUHU216HW,2013-03-22 02:31:00,
2013-03-21 22:32:00,32.2,18.3,29.85,SE,135,0.0,0.0,56,0.00,,,0.00,WUHU216HW,2013-03-22 02:32:00,
2013-03-21 22:34:00,32.0,18.1,29.85,SSE,158,0.0,0.0,56,0.00,,,0.00,WUHU216HW,2013-03-22 02:34:00,
2013-03-21 22:36:00,32.0,18.1,29.85,SSE,158,0.3,0.4,56,0.00,,,0.00,WUHU216HW,2013-03-22 02:36:00,
2013-03-21 22:37:00,32.0,18.1,29.85,SSE,158,0.2,0.4,56,0.00,,,0.00,WUHU216HW,2013-03-22 02:37:00,
2013-03-21 22:38:00,32.0,18.1,29.85,SSE,158,0.2,0.4,56,0.00,,,0.00,WUHU216HW,2013-03-22 02:38:00,
2013-03-21 22:39:00,32.0,18.1,29.85,SSE,158,0.0,0.4,56,0.00,,,0.00,WUHU216HW,2013-03-22 02:39:00,
2013-03-21 22:42:00,31.9,18.4,29.85,SSE,158,0.0,0.4,57,0.00,,,0.00,WUHU216HW,2013-03-22 02:42:00,
2013-03-21 22:43:00,31.9,18.4,29.85,SSE,158,0.0,0.4,57,0.00,,,0.00,WUHU216HW,2013-03-22 02:43:00,
2013-03-21 22:47:00,31.5,18.0,29.86,SSE,158,0.0,0.2,57,0.00,,,0.00,WUHU216HW,2013-03-22 02:47:00,
2013-03-21 22:48:00,31.3,17.8,29.86,SSE,158,0.0,0.0,57,0.00,,,0.00,WUHU216HW,2013-03-22 02:48:00,
2013-03-21 22:49:00,31.3,17.8,29.86,SSE,158,0.0,0.0,57,0.00,,,0.00,WUHU216HW,2013-03-22 02:49:00,
2013-03-21 22:53:00,31.3,17.4,29.86,SSE,158,0.0,0.0,56,0.00,,,0.00,WUHU216HW,2013-03-22 02:53:00,
2013-03-21 22:54:00,31.3,17.4,29.86,SSE,158,0.0,0.0,56,0.00,,,0.00,WUHU216HW,2013-03-22 02:54:00,
2013-03-21 22:58:00,31.1,17.7,29.87,SSE,158,0.0,0.0,57,0.00,,,0.00,WUHU216HW,2013-03-22 02:58:00,
2013-03-21 22:59:00,31.1,17.7,29.86,SSE,158,0.0,0.0,57,0.00,,,0.00,WUHU216HW,2013-03-22 02:59:00,
2013-03-21 23:00:00,31.1,17.7,29.86,SSE,158,0.0,0.0,57,0.00,,,0.00,WUHU216HW,2013-03-22 03:00:00,
2013-03-21 23:03:00,31.0,17.5,29.86,SSE,158,0.0,0.0,57,0.00,,,0.00,WUHU216HW,2013-03-22 03:03:00,
2013-03-21 23:04:00,31.0,17.9,29.86,SSE,158,0.0,0.0,58,0.00,,,0.00,WUHU216HW,2013-03-22 03:04:00,
2013-03-21 23:05:00,31.0,17.9,29.86,SSE,158,0.0,0.0,58,0.00,,,0.00,WUHU216HW,2013-03-22 03:05:00,
2013-03-21 23:08:00,30.8,18.1,29.87,SSE,158,0.0,0.0,59,0.00,,,0.00,WUHU216HW,2013-03-22 03:08:00,
2013-03-21 23:10:00,30.8,17.7,29.86,SSE,158,0.0,0.0,58,0.00,,,0.00,WUHU216HW,2013-03-22 03:10:00,
2013-03-21 23:14:00,30.8,17.7,29.87,SSE,158,0.0,0.0,58,0.00,,,0.00,WUHU216HW,2013-03-22 03:14:00,
2013-03-21 23:15:00,30.6,17.6,29.87,SSE,158,0.9,1.1,58,0.00,,,0.00,WUHU216HW,2013-03-22 03:15:00,
2013-03-21 23:18:00,30.6,18.4,29.87,SSE,158,0.6,1.1,60,0.00,,,0.00,WUHU216HW,2013-03-22 03:18:00,
2013-03-21 23:19:00,30.6,18.4,29.87,SSE,158,0.6,1.1,60,0.00,,,0.00,WUHU216HW,2013-03-22 03:19:00,
2013-03-21 23:20:00,30.6,19.1,29.86,SSE,158,0.7,1.1,62,0.00,,,0.00,WUHU216HW,2013-03-22 03:20:00,
2013-03-21 23:21:00,30.6,18.7,29.86,SSE,158,0.6,1.1,61,0.00,,,0.00,WUHU216HW,2013-03-22 03:21:00,
2013-03-21 23:24:00,30.6,18.7,29.86,SSE,158,0.2,1.1,61,0.00,,,0.00,WUHU216HW,2013-03-22 03:24:00,
2013-03-21 23:26:00,30.6,18.7,29.86,SSE,158,0.0,0.9,61,0.00,,,0.00,WUHU216HW,2013-03-22 03:26:00,
2013-03-21 23:27:00,30.6,18.7,29.86,SSE,158,0.0,0.9,61,0.00,,,0.00,WUHU216HW,2013-03-22 03:27:00,
2013-03-21 23:30:00,30.6,18.7,29.86,SSE,158,0.0,0.7,61,0.00,,,0.00,WUHU216HW,2013-03-22 03:30:00,
2013-03-21 23:32:00,30.6,18.4,29.86,SSE,158,0.0,0.4,60,0.00,,,0.00,WUHU216HW,2013-03-22 03:32:00,
2013-03-21 23:35:00,30.2,18.4,29.87,SSE,158,0.0,0.0,61,0.00,,,0.00,WUHU216HW,2013-03-22 03:35:00,
2013-03-21 23:37:00,30.4,18.9,29.87,SSE,158,0.0,0.0,62,0.00,,,0.00,WUHU216HW,2013-03-22 03:37:00,
2013-03-21 23:38:00,30.2,19.1,29.87,SSE,158,0.0,0.0,63,0.00,,,0.00,WUHU216HW,2013-03-22 03:38:00,
2013-03-21 23:41:00,30.4,18.5,29.87,SSE,158,0.0,0.0,61,0.00,,,0.00,WUHU216HW,2013-03-22 03:41:00,
2013-03-21 23:42:00,30.4,18.5,29.87,SSE,158,0.0,0.0,61,0.00,,,0.00,WUHU216HW,2013-03-22 03:42:00,
2013-03-21 23:43:00,30.4,18.5,29.87,SSE,158,0.0,0.0,61,0.00,,,0.00,WUHU216HW,2013-03-22 03:43:00,
2013-03-21 23:44:00,30.4,18.5,29.87,SSE,158,0.0,0.0,61,0.00,,,0.00,WUHU216HW,2013-03-22 03:44:00,
2013-03-21 23:46:00,30.2,18.7,29.87,SSE,158,0.0,0.0,62,0.00,,,0.00,WUHU216HW,2013-03-22 03:46:00,
2013-03-21 23:48:00,30.2,18.7,29.87,SSE,158,0.0,0.0,62,0.00,,,0.00,WUHU216HW,2013-03-22 03:48:00,
2013-03-21 23:49:00,30.2,18.7,29.87,SSE,158,0.0,0.0,62,0.00,,,0.00,WUHU216HW,2013-03-22 03:49:00,
2013-03-21 23:52:00,30.1,18.5,29.87,SSE,158,0.0,0.0,62,0.00,,,0.00,WUHU216HW,2013-03-22 03:52:00,
2013-03-21 23:54:00,29.9,18.4,29.87,SSE,158,0.0,0.0,62,0.00,,,0.00,WUHU216HW,2013-03-22 03:54:00,
2013-03-21 23:58:00,29.9,18.4,29.87,SSE,158,0.0,0.0,62,0.00,,,0.00,WUHU216HW,2013-03-22 03:58:00,
2013-03-21 23:59:00,29.9,18.4,29.87,SSE,158,0.0,0.0,62,0.00,,,0.00,WUHU216HW,2013-03-22 03:59:00,